MENDUMS POND: From 05/03/2020 00:00 to 07/04/2020 00:00

Date LAKE ELEVATION [FT] PRECIPITATION INCREMENT [IN] WATER TEMPERATURE [F] PRECIPITATION TOTAL [IN] AIR TEMPERATURE [F] RESERVOIR RELEASE [CFS]
07/02/2020 17:00 224.63 0.00 54.8 -- 91.1 6.0
07/02/2020 16:00 224.64 0.00 55.0 -- 89.6 6.0
07/02/2020 15:00 224.64 0.00 55.1 -- 87.2 6.0
07/02/2020 14:00 224.64 0.00 55.1 -- 86.3 6.0
07/02/2020 13:00 224.64 0.00 55.0 -- 85.4 6.0
07/02/2020 12:00 224.64 0.00 54.8 -- 81.7 6.0
07/02/2020 11:00 224.64 0.00 55.0 -- 76.2 6.0
07/02/2020 10:00 224.64 0.00 54.9 -- 71.8 6.5
07/02/2020 09:00 224.64 0.00 54.9 -- 65.8 6.0
07/02/2020 08:00 224.64 0.00 54.9 -- 61.5 6.0
07/02/2020 07:00 224.64 0.00 54.9 -- 59.8 6.8
07/02/2020 06:00 224.65 0.00 55.0 -- 59.2 6.5
07/02/2020 05:00 224.64 0.00 54.8 -- 59.3 6.3
07/02/2020 04:00 224.64 0.00 54.8 -- 60.5 7.0
07/02/2020 03:00 224.64 0.00 55.0 -- 61.2 7.0
07/02/2020 02:00 224.65 0.00 55.0 -- 61.1 7.0
07/02/2020 01:00 224.64 0.00 54.9 -- 61.8 6.8
07/02/2020 00:00 224.65 0.00 54.8 -- 63.1 7.0
07/01/2020 23:00 224.65 0.00 54.9 -- 65.7 6.8
07/01/2020 22:00 224.64 0.00 54.9 -- 66.6 7.0
07/01/2020 21:00 224.65 0.00 54.9 -- 67.8 7.0
07/01/2020 20:00 224.65 0.00 54.9 -- 77.2 7.0
07/01/2020 19:00 224.65 0.00 54.8 -- 76.4 7.0
07/01/2020 18:00 224.65 0.00 55.0 -- 78.8 7.0
07/01/2020 17:00 224.65 0.00 54.8 -- 77.3 7.0
07/01/2020 16:00 224.65 0.00 55.0 -- 77.3 7.0
07/01/2020 15:00 224.66 0.00 55.0 -- 75.3 7.0
07/01/2020 14:00 224.65 0.00 54.8 -- 73.6 7.0
07/01/2020 13:00 224.65 0.00 54.8 -- 72.0 7.0
07/01/2020 12:00 224.65 0.00 55.1 -- 71.2 7.0
07/01/2020 11:00 224.65 0.00 55.0 -- 67.8 7.0
07/01/2020 10:00 224.65 0.00 54.8 -- 65.6 7.0
07/01/2020 09:00 224.65 0.00 54.7 -- 64.4 7.0
07/01/2020 08:00 224.65 0.01 55.0 -- 63.5 7.0
07/01/2020 07:00 224.65 0.00 55.1 -- 63.1 7.0
07/01/2020 06:00 224.65 0.00 54.8 -- 63.4 7.0
07/01/2020 05:00 224.64 0.00 54.8 -- 63.5 6.8
07/01/2020 04:00 224.64 0.00 55.0 -- 63.5 6.0
07/01/2020 03:00 224.64 0.01 55.2 -- 63.5 6.0
07/01/2020 02:00 224.64 0.02 54.4 -- 63.6 6.0
07/01/2020 01:00 224.63 0.00 54.9 -- 63.4 5.3
07/01/2020 00:00 224.62 0.40 54.7 0.04 63.8 4.8
06/30/2020 23:00 224.59 0.43 55.1 -- 63.8 2.8
06/30/2020 22:00 224.54 0.78 55.0 -- 63.7 0.3
06/30/2020 21:00 224.46 0.18 54.9 -- 64.1 0.0
06/30/2020 20:00 224.44 0.18 54.9 -- 65.1 0.0
06/30/2020 19:00 224.42 0.06 54.7 -- 66.2 0.0
06/30/2020 18:00 224.42 0.04 54.7 -- 67.0 0.0
06/30/2020 17:00 224.42 0.00 55.0 -- 69.6 0.0
06/30/2020 16:00 224.42 0.00 54.9 -- 70.9 0.0
06/30/2020 15:00 224.41 0.00 54.7 -- 70.5 0.0
06/30/2020 14:00 224.43 0.00 54.9 -- 71.3 0.0
06/30/2020 13:00 224.41 0.00 54.8 -- 69.7 0.0
06/30/2020 12:00 224.42 0.00 54.9 -- 67.6 0.0
06/30/2020 11:00 224.41 0.00 54.8 -- 67.9 0.0
06/30/2020 10:00 224.42 0.00 54.8 -- 66.5 0.0
06/30/2020 09:00 224.42 0.00 54.8 -- 65.2 0.0
06/30/2020 08:00 224.42 0.00 54.7 -- 64.1 0.0
06/30/2020 07:00 224.42 0.00 55.0 -- 63.1 0.0
06/30/2020 06:00 224.42 0.00 54.8 -- 63.3 0.0
06/30/2020 05:00 224.42 0.00 54.6 -- 63.1 0.0
06/30/2020 04:00 224.42 0.00 54.9 -- 63.4 0.0
06/30/2020 03:00 224.42 0.00 55.1 -- 63.0 0.0
06/30/2020 02:00 224.42 0.00 54.7 -- 62.4 0.0
06/30/2020 01:00 224.42 0.00 54.7 -- 62.4 0.0
06/30/2020 00:00 224.42 0.01 54.9 2.07 62.1 0.0
06/29/2020 23:00 224.41 0.00 54.5 -- 62.1 0.0
06/29/2020 22:00 224.43 0.02 55.1 -- 62.1 0.0
06/29/2020 21:00 224.42 0.35 55.0 -- 62.8 0.0
06/29/2020 20:00 224.39 0.32 54.9 -- 63.5 0.0
06/29/2020 19:00 224.37 0.04 55.0 -- 64.2 0.0
06/29/2020 18:00 224.37 0.00 54.8 -- 65.5 0.0
06/29/2020 17:00 224.36 0.00 54.9 -- 66.9 0.0
06/29/2020 16:00 224.36 0.00 55.2 -- 69.3 0.0
06/29/2020 15:00 224.35 0.00 54.8 -- 70.1 0.0
06/29/2020 14:00 224.37 0.00 54.7 -- 70.4 0.0
06/29/2020 13:00 224.36 0.00 54.9 -- 68.7 0.0
06/29/2020 12:00 224.36 0.00 54.6 -- 67.6 0.0
06/29/2020 11:00 224.38 0.00 54.6 -- 66.4 0.0
06/29/2020 10:00 224.37 0.00 54.9 -- 66.3 0.0
06/29/2020 09:00 224.37 0.00 55.0 -- 66.0 0.0
06/29/2020 08:00 224.38 0.00 54.3 -- 66.0 0.0
06/29/2020 07:00 224.37 0.00 54.6 -- 66.6 0.0
06/29/2020 06:00 224.38 0.00 55.5 -- 66.8 0.0
06/29/2020 05:00 224.37 0.00 54.5 -- 66.6 0.0
06/29/2020 04:00 224.38 0.01 54.5 -- 66.8 0.0
06/29/2020 03:00 224.37 0.02 55.2 -- 67.0 0.0
06/29/2020 02:00 224.38 0.01 54.6 -- 67.1 0.0
06/29/2020 01:00 224.37 0.07 54.6 -- 67.4 0.0
06/29/2020 00:00 224.36 0.04 54.9 0.85 67.8 0.0
06/28/2020 23:00 224.37 0.01 54.9 -- 68.0 0.0
06/28/2020 22:00 224.36 0.02 54.5 -- 68.2 0.0
06/28/2020 21:00 224.36 0.00 54.6 -- 70.3 0.0
06/28/2020 20:00 224.37 0.00 54.8 -- 71.6 0.0
06/28/2020 19:00 224.37 0.00 54.6 -- 73.1 0.0
06/28/2020 18:00 224.36 0.00 54.7 -- 76.3 0.0
06/28/2020 17:00 224.37 0.00 55.0 -- 79.2 0.0
06/28/2020 16:00 224.37 0.00 54.8 -- 79.7 0.0
06/28/2020 15:00 224.37 0.00 54.6 -- 81.0 0.0
06/28/2020 14:00 224.37 0.00 54.5 -- 79.3 0.0
06/28/2020 13:00 224.37 0.00 54.9 -- 82.5 0.0
06/28/2020 12:00 224.37 0.00 54.8 -- 78.8 0.0
06/28/2020 11:00 224.38 0.00 54.7 -- 76.7 0.0
06/28/2020 10:00 224.38 0.00 54.7 -- 72.9 0.0
06/28/2020 09:00 224.38 0.00 54.7 -- 68.5 0.0
06/28/2020 08:00 224.37 0.00 54.6 -- 62.9 0.0
06/28/2020 07:00 224.38 0.00 54.6 -- 59.1 0.0
06/28/2020 06:00 224.38 0.00 54.8 -- 59.0 0.0
06/28/2020 05:00 224.38 0.00 54.6 -- 61.1 0.0
06/28/2020 04:00 224.38 0.00 54.6 -- 61.0 0.0
06/28/2020 03:00 224.38 0.00 55.0 -- 61.0 0.0
06/28/2020 02:00 224.38 0.00 54.6 -- 62.4 0.0
06/28/2020 01:00 224.38 0.00 54.8 -- 64.4 0.0
06/28/2020 00:00 224.38 0.00 54.8 0.07 67.0 0.0
06/27/2020 23:00 224.38 0.00 54.8 -- 67.5 0.0
06/27/2020 22:00 224.38 0.00 54.5 -- 68.9 0.0
06/27/2020 21:00 224.39 0.00 54.5 -- 70.7 0.0
06/27/2020 20:00 224.38 0.00 54.9 -- 72.1 0.0
06/27/2020 19:00 224.39 0.00 55.0 -- 73.5 0.0
06/27/2020 18:00 224.38 0.00 54.8 -- 76.4 0.0
06/27/2020 17:00 224.38 0.00 54.3 -- 79.9 0.0
06/27/2020 16:00 224.39 0.00 54.8 -- 79.2 0.0
06/27/2020 15:00 224.39 0.00 54.6 -- 77.8 0.0
06/27/2020 14:00 224.39 0.00 54.9 -- 76.9 0.0
06/27/2020 13:00 224.39 0.00 54.8 -- 78.1 0.0
06/27/2020 12:00 224.39 0.00 54.2 -- 79.5 0.0
06/27/2020 11:00 224.40 0.00 55.0 -- 79.1 0.0
06/27/2020 10:00 224.40 0.00 54.9 -- 74.3 0.0
06/27/2020 09:00 224.40 0.00 54.8 -- 70.3 0.0
06/27/2020 08:00 224.40 0.00 54.6 -- 63.1 0.0
06/27/2020 07:00 224.40 0.00 54.7 -- 58.4 0.0
06/27/2020 06:00 224.40 0.00 54.8 -- 57.0 0.0
06/27/2020 05:00 224.40 0.00 54.6 -- 57.2 0.0
06/27/2020 04:00 224.40 0.00 54.9 -- 57.5 0.0
06/27/2020 03:00 224.40 0.00 54.5 -- 59.5 0.0
06/27/2020 02:00 224.40 0.00 54.6 -- 60.5 0.0
06/27/2020 01:00 224.40 0.00 54.4 -- 61.0 0.0
06/27/2020 00:00 224.41 0.00 55.0 0.00 62.3 0.0
06/26/2020 23:00 224.40 0.00 54.7 -- 63.6 0.0
06/26/2020 22:00 224.41 0.00 54.6 -- 65.5 0.0
06/26/2020 21:00 224.40 0.00 54.7 -- 70.3 0.0
06/26/2020 20:00 224.41 0.00 54.9 -- 81.1 0.0
06/26/2020 19:00 224.40 0.00 54.5 -- 82.4 0.0
06/26/2020 18:00 224.41 0.00 54.8 -- 78.9 0.0
06/26/2020 17:00 224.41 0.00 54.4 -- 78.1 0.0
06/26/2020 16:00 224.40 0.00 54.6 -- 85.1 0.0
06/26/2020 15:00 224.41 0.00 54.7 -- 83.5 0.0
06/26/2020 14:00 224.41 0.00 54.6 -- 83.1 0.0
06/26/2020 13:00 224.42 0.00 54.4 -- 80.7 0.0
06/26/2020 12:00 224.41 0.00 54.3 -- 79.6 0.0
06/26/2020 11:00 224.41 0.00 54.7 -- 77.5 0.0
06/26/2020 10:00 224.41 0.00 54.8 -- 74.0 0.0
06/26/2020 09:00 224.41 0.00 54.4 -- 69.0 0.0
06/26/2020 08:00 224.41 0.00 54.5 -- 61.4 0.0
06/26/2020 07:00 224.41 0.00 54.5 -- 56.7 0.0
06/26/2020 06:00 224.42 0.00 54.7 -- 56.6 0.0
06/26/2020 05:00 224.41 0.00 54.3 -- 57.4 0.0
06/26/2020 04:00 224.42 0.00 54.6 -- 57.6 0.0
06/26/2020 03:00 224.42 0.00 54.6 -- 58.0 0.0
06/26/2020 02:00 224.42 0.00 54.8 -- 59.2 0.0
06/26/2020 01:00 224.42 0.00 54.3 -- 59.7 0.0
06/26/2020 00:00 224.41 0.00 54.5 0.00 60.8 0.0
06/25/2020 23:00 224.41 0.00 54.8 -- 62.8 0.0
06/25/2020 22:00 224.42 0.00 54.6 -- 65.7 0.0
06/25/2020 21:00 224.41 0.00 54.2 -- 70.9 0.0
06/25/2020 20:00 224.42 0.00 54.4 -- 82.3 0.0
06/25/2020 19:00 224.42 0.00 54.5 -- 84.0 0.0
06/25/2020 18:00 224.41 0.00 54.6 -- 83.5 0.0
06/25/2020 17:00 224.43 0.00 54.7 -- 80.2 0.0
06/25/2020 16:00 224.42 0.00 54.5 -- 79.3 0.0
06/25/2020 15:00 224.43 0.00 54.5 -- 80.0 0.0
06/25/2020 14:00 224.43 0.00 54.6 -- 76.7 0.0
06/25/2020 13:00 224.43 0.00 54.3 -- 78.2 0.0
06/25/2020 12:00 224.43 0.00 54.2 -- 73.0 0.0
06/25/2020 11:00 224.42 0.00 54.6 -- 74.0 0.0
06/25/2020 10:00 224.43 0.00 54.5 -- 68.7 0.0
06/25/2020 09:00 224.43 0.00 54.2 -- 61.6 0.0
06/25/2020 08:00 224.43 0.00 54.5 -- 59.5 0.0
06/25/2020 07:00 224.43 0.00 54.5 -- 57.3 0.0
06/25/2020 06:00 224.43 0.00 54.5 -- 56.6 0.0
06/25/2020 05:00 224.43 0.00 54.1 -- 57.2 0.0
06/25/2020 04:00 224.43 0.00 54.8 -- 57.4 0.0
06/25/2020 03:00 224.44 0.00 54.4 -- 58.8 0.0
06/25/2020 02:00 224.43 0.00 54.5 -- 59.1 0.0
06/25/2020 01:00 224.43 0.00 54.4 -- 59.6 0.0
06/25/2020 00:00 224.44 0.00 54.5 0.00 60.8 0.0
06/24/2020 23:00 224.44 0.00 54.5 -- 62.0 0.0
06/24/2020 22:00 224.43 0.00 54.2 -- 63.5 0.0
06/24/2020 21:00 224.44 0.00 54.4 -- 70.0 0.0
06/24/2020 20:00 224.44 0.00 54.5 -- 78.5 0.0
06/24/2020 19:00 224.43 0.03 54.4 -- 77.0 0.0
06/24/2020 18:00 224.44 0.22 54.7 -- 74.8 0.0
06/24/2020 17:00 224.42 0.00 54.5 -- 80.8 0.0
06/24/2020 16:00 224.42 0.00 54.4 -- 80.6 0.0
06/24/2020 15:00 224.42 0.00 54.5 -- 81.3 0.0
06/24/2020 14:00 224.42 0.00 54.4 -- 81.3 0.0
06/24/2020 13:00 224.42 0.00 54.2 -- 78.5 0.0
06/24/2020 12:00 224.42 0.00 54.4 -- 74.9 0.0
06/24/2020 11:00 224.42 0.00 54.5 -- 73.1 0.0
06/24/2020 10:00 224.42 0.00 54.5 -- 72.1 0.0
06/24/2020 09:00 224.43 0.00 54.4 -- 70.9 0.0
06/24/2020 08:00 224.42 0.00 54.5 -- 69.8 0.0
06/24/2020 07:00 224.42 0.00 54.3 -- 68.5 0.0
06/24/2020 06:00 224.42 0.00 54.4 -- 67.8 0.0
06/24/2020 05:00 224.43 0.00 54.4 -- 66.6 0.0
06/24/2020 04:00 224.42 0.00 54.6 -- 67.2 0.0
06/24/2020 03:00 224.43 0.00 54.0 -- 68.0 0.0
06/24/2020 02:00 224.42 0.00 54.2 -- 68.6 0.0
06/24/2020 01:00 224.43 0.00 54.4 -- 69.9 0.0
06/24/2020 00:00 224.43 0.00 54.1 0.25 71.1 0.0
06/23/2020 23:00 224.43 0.00 54.6 -- 72.9 0.0
06/23/2020 22:00 224.43 0.00 54.6 -- 76.2 0.0
06/23/2020 21:00 224.43 0.00 54.4 -- 79.5 0.0
06/23/2020 20:00 224.43 0.00 54.3 -- 85.1 0.0
06/23/2020 19:00 224.43 0.00 54.5 -- 86.6 0.0
06/23/2020 18:00 224.43 0.00 54.3 -- 87.2 0.0
06/23/2020 17:00 224.43 0.00 54.1 -- 86.4 0.0
06/23/2020 16:00 224.44 0.00 54.6 -- 86.8 0.0
06/23/2020 15:00 224.43 0.00 54.3 -- 86.3 0.0
06/23/2020 14:00 224.43 0.00 54.4 -- 85.5 0.0
06/23/2020 13:00 224.43 0.00 54.2 -- 82.1 0.0
06/23/2020 12:00 224.44 0.00 54.3 -- 78.5 0.0
06/23/2020 11:00 224.43 0.00 54.4 -- 73.4 0.0
06/23/2020 10:00 224.43 0.00 54.3 -- 67.6 0.0
06/23/2020 09:00 224.43 0.00 54.2 -- 65.1 0.0
06/23/2020 08:00 224.44 0.00 54.4 -- 63.6 0.0
06/23/2020 07:00 224.43 0.00 54.4 -- 63.0 0.0
06/23/2020 06:00 224.43 0.00 54.4 -- 62.9 0.0
06/23/2020 05:00 224.44 0.00 54.5 -- 62.9 0.0
06/23/2020 04:00 224.43 0.00 54.3 -- 62.8 0.0
06/23/2020 03:00 224.43 0.00 54.7 -- 63.0 0.0
06/23/2020 02:00 224.44 0.00 53.9 -- 62.8 0.0
06/23/2020 01:00 224.43 0.00 54.4 -- 63.4 0.0
06/23/2020 00:00 224.44 0.00 54.3 0.00 63.9 0.0
06/22/2020 23:00 224.44 0.00 54.4 -- 64.2 0.0
06/22/2020 22:00 224.44 0.00 54.2 -- 66.8 0.0
06/22/2020 21:00 224.44 0.00 54.6 -- 70.0 0.0
06/22/2020 20:00 224.44 0.00 54.3 -- 74.9 0.0
06/22/2020 19:00 224.44 0.00 54.1 -- 79.5 0.0
06/22/2020 18:00 224.43 0.00 54.1 -- 79.6 0.0
06/22/2020 17:00 224.45 0.00 54.7 -- 80.1 0.0
06/22/2020 16:00 224.44 0.00 54.3 -- 80.4 0.0
06/22/2020 15:00 224.44 0.00 54.5 -- 78.6 0.0
06/22/2020 14:00 224.45 0.00 54.3 -- 75.0 0.0
06/22/2020 13:00 224.44 0.00 54.3 -- 72.0 0.0
06/22/2020 12:00 224.45 0.00 54.2 -- 69.5 0.0
06/22/2020 11:00 224.45 0.00 54.2 -- 68.1 0.0
06/22/2020 10:00 224.45 0.00 54.5 -- 65.9 0.0
06/22/2020 09:00 224.45 0.00 54.4 -- 65.2 0.0
06/22/2020 08:00 224.45 0.00 54.3 -- 64.4 0.0
06/22/2020 07:00 224.45 0.00 54.3 -- 64.6 0.0
06/22/2020 06:00 224.45 0.00 53.7 -- 64.9 0.0
06/22/2020 05:00 224.45 0.00 54.2 -- 65.3 0.0
06/22/2020 04:00 224.45 0.00 54.2 -- 66.0 0.0
06/22/2020 03:00 224.45 0.00 54.0 -- 66.4 0.0
06/22/2020 02:00 224.45 0.00 54.4 -- 66.5 0.0
06/22/2020 01:00 224.45 0.00 54.4 -- 65.8 0.0
06/22/2020 00:00 224.45 0.00 54.3 0.00 65.4 0.0
06/21/2020 23:00 224.46 0.00 53.7 -- 65.7 0.0
06/21/2020 22:00 224.46 0.00 53.7 -- 65.8 0.0
06/21/2020 21:00 224.46 0.00 53.7 -- 65.9 0.0
06/21/2020 20:00 224.46 0.00 53.8 -- 66.0 0.0
06/21/2020 19:00 224.46 0.00 53.8 -- 66.1 0.0
06/21/2020 18:00 224.46 0.00 53.8 -- 66.2 0.0
06/21/2020 17:00 224.46 0.00 53.8 -- 66.3 0.0
06/21/2020 16:00 224.46 0.00 53.8 -- 66.5 0.0
06/21/2020 15:00 224.46 0.00 53.9 -- 66.6 0.0
06/21/2020 14:00 224.46 0.00 53.9 -- 66.7 0.0
06/21/2020 13:00 224.46 0.00 53.9 -- 66.8 0.0
06/21/2020 12:00 224.46 0.00 53.9 -- 66.9 0.0
06/21/2020 11:00 224.46 0.00 53.9 -- 67.0 0.0
06/21/2020 10:00 224.46 0.00 54.0 -- 67.1 0.0
06/21/2020 09:00 224.46 0.00 54.0 -- 67.2 0.0
06/21/2020 08:00 224.46 0.00 54.0 -- 67.3 0.0
06/21/2020 07:00 224.46 0.00 54.0 -- 67.4 0.0
06/21/2020 06:00 224.46 0.00 54.0 -- 67.6 0.0
06/21/2020 05:00 224.46 0.00 54.1 -- 67.7 0.0
06/21/2020 04:00 224.46 0.00 54.1 -- 67.8 0.0
06/21/2020 03:00 224.46 0.00 54.1 -- 67.9 0.0
06/21/2020 02:00 224.46 0.00 54.1 -- 67.3 0.0
06/21/2020 01:00 224.46 0.00 54.2 -- 69.0 0.0
06/21/2020 00:00 -- 0.00 -- 0.00 -- 0.0
06/20/2020 23:00 224.46 0.00 54.2 -- 71.3 0.0
06/20/2020 22:00 224.46 0.00 53.8 -- 71.5 0.0
06/20/2020 21:00 224.46 0.00 54.2 -- 74.0 0.0
06/20/2020 20:00 224.46 0.01 53.5 -- 74.2 0.0
06/20/2020 19:00 224.45 0.54 53.9 -- 71.2 0.0
06/20/2020 18:00 224.44 0.00 53.8 -- 88.4 0.0
06/20/2020 17:00 224.43 0.00 53.9 -- 93.9 0.0
06/20/2020 16:00 224.43 0.00 53.9 -- 92.2 0.0
06/20/2020 15:00 224.44 0.00 53.7 -- 91.5 0.0
06/20/2020 14:00 224.44 0.00 53.9 -- 89.5 0.0
06/20/2020 13:00 224.44 0.00 53.9 -- 86.1 0.0
06/20/2020 12:00 224.44 0.00 54.0 -- 83.6 0.0
06/20/2020 11:00 224.44 0.00 53.9 -- 78.9 0.0
06/20/2020 10:00 224.44 0.00 53.9 -- 77.5 0.0
06/20/2020 09:00 224.44 0.00 53.8 -- 73.0 0.0
06/20/2020 08:00 224.44 0.00 53.8 -- 69.9 0.0
06/20/2020 07:00 224.44 0.00 53.9 -- 68.2 0.0
06/20/2020 06:00 224.44 0.00 53.8 -- 68.5 0.0
06/20/2020 05:00 224.44 0.00 53.8 -- 68.5 0.0
06/20/2020 04:00 224.44 0.00 53.4 -- 70.7 0.0
06/20/2020 03:00 224.44 0.00 54.1 -- 70.4 0.0
06/20/2020 02:00 224.44 0.00 53.9 -- 72.0 0.0
06/20/2020 01:00 224.44 0.00 54.0 -- 72.1 0.0
06/20/2020 00:00 224.44 0.00 53.9 0.55 69.1 0.0
06/19/2020 23:00 224.44 0.00 53.8 -- 70.8 0.0
06/19/2020 22:00 224.44 0.00 53.7 -- 73.8 0.0
06/19/2020 21:00 224.44 0.00 53.9 -- 79.4 0.0
06/19/2020 20:00 224.44 0.00 54.2 -- 86.6 0.0
06/19/2020 19:00 224.45 0.00 54.1 -- 88.2 0.0
06/19/2020 18:00 224.44 0.00 54.0 -- 89.1 0.0
06/19/2020 17:00 224.45 0.00 53.9 -- 89.0 0.0
06/19/2020 16:00 224.44 0.00 53.8 -- 88.5 0.0
06/19/2020 15:00 224.45 0.00 53.7 -- 89.2 0.0
06/19/2020 14:00 224.45 0.00 54.0 -- 89.1 0.0
06/19/2020 13:00 224.44 0.00 53.8 -- 85.6 0.0
06/19/2020 12:00 224.45 0.00 53.8 -- 84.5 0.0
06/19/2020 11:00 224.45 0.00 53.9 -- 80.3 0.0
06/19/2020 10:00 224.45 0.00 53.8 -- 76.7 0.0
06/19/2020 09:00 224.45 0.00 53.8 -- 73.6 0.0
06/19/2020 08:00 224.45 0.00 53.8 -- 69.7 0.0
06/19/2020 07:00 224.45 0.00 53.6 -- 66.2 0.0
06/19/2020 06:00 224.45 0.00 54.0 -- 66.1 0.0
06/19/2020 05:00 224.45 0.00 53.7 -- 66.0 0.0
06/19/2020 04:00 224.45 0.00 53.9 -- 65.9 0.0
06/19/2020 03:00 224.45 0.00 54.0 -- 67.1 0.0
06/19/2020 02:00 224.45 0.00 53.7 -- 67.8 0.0
06/19/2020 01:00 224.45 0.00 53.5 -- 66.8 0.0
06/19/2020 00:00 224.45 0.00 54.1 0.00 67.5 0.0
06/18/2020 23:00 224.45 0.00 53.8 -- 69.3 0.0
06/18/2020 22:00 224.45 0.00 53.8 -- 73.9 0.0
06/18/2020 21:00 224.45 0.00 53.8 -- 79.7 0.0
06/18/2020 20:00 224.46 0.00 53.9 -- 86.8 0.0
06/18/2020 19:00 224.45 0.00 53.9 -- 88.7 0.0
06/18/2020 18:00 224.45 0.00 53.9 -- 90.1 0.0
06/18/2020 17:00 224.45 0.00 53.8 -- 88.7 0.0
06/18/2020 16:00 224.45 0.00 53.9 -- 88.7 0.0
06/18/2020 15:00 224.46 0.00 53.8 -- 87.0 0.0
06/18/2020 14:00 224.46 0.00 53.8 -- 88.1 0.0
06/18/2020 13:00 224.46 0.00 54.0 -- 85.3 0.0
06/18/2020 12:00 224.46 0.00 53.8 -- 82.2 0.0
06/18/2020 11:00 224.46 0.00 53.9 -- 79.2 0.0
06/18/2020 10:00 224.46 0.00 53.8 -- 73.6 0.0
06/18/2020 09:00 224.46 0.00 53.7 -- 66.5 0.0
06/18/2020 08:00 224.45 0.00 53.7 -- 56.4 0.0
06/18/2020 07:00 224.46 0.00 53.9 -- 52.3 0.0
06/18/2020 06:00 224.46 0.00 53.9 -- 52.1 0.0
06/18/2020 05:00 224.46 0.00 54.0 -- 52.8 0.0
06/18/2020 04:00 224.46 0.00 53.9 -- 53.5 0.0
06/18/2020 03:00 224.46 0.00 53.6 -- 54.5 0.0
06/18/2020 02:00 224.46 0.00 53.8 -- 55.6 0.0
06/18/2020 01:00 224.46 0.00 54.0 -- 56.9 0.0
06/18/2020 00:00 224.46 0.00 53.8 0.00 58.4 0.0
06/17/2020 23:00 224.46 0.00 53.8 -- 60.7 0.0
06/17/2020 22:00 224.46 0.00 54.0 -- 64.4 0.0
06/17/2020 21:00 224.46 0.00 54.0 -- 72.5 0.0
06/17/2020 20:00 224.46 0.00 53.8 -- 77.7 0.0
06/17/2020 19:00 224.46 0.00 53.8 -- 81.5 0.0
06/17/2020 18:00 224.46 0.00 53.9 -- 82.5 0.0
06/17/2020 17:00 224.46 0.00 53.9 -- 83.5 0.0
06/17/2020 16:00 224.46 0.00 53.8 -- 83.6 0.0
06/17/2020 15:00 224.47 0.00 53.9 -- 81.8 0.0
06/17/2020 14:00 224.46 0.00 54.0 -- 80.0 0.0
06/17/2020 13:00 224.46 0.00 54.1 -- 77.9 0.0
06/17/2020 12:00 224.46 0.00 54.0 -- 75.4 0.0
06/17/2020 11:00 224.47 0.00 53.8 -- 71.0 0.0
06/17/2020 10:00 224.46 0.00 53.7 -- 66.7 0.0
06/17/2020 09:00 224.47 0.00 53.8 -- 57.8 0.0
06/17/2020 08:00 224.46 0.00 54.0 -- 50.7 0.0
06/17/2020 07:00 224.47 0.00 53.9 -- 46.6 0.0
06/17/2020 06:00 224.46 0.00 53.9 -- 45.7 0.0
06/17/2020 05:00 224.47 0.00 53.8 -- 46.6 0.0
06/17/2020 04:00 224.47 0.00 53.9 -- 47.5 0.0
06/17/2020 03:00 224.47 0.00 54.0 -- 48.5 0.0
06/17/2020 02:00 224.47 0.00 54.0 -- 49.6 0.0
06/17/2020 01:00 224.47 0.00 53.8 -- 51.0 0.0
06/17/2020 00:00 224.47 0.00 54.0 0.00 52.8 0.0
06/16/2020 23:00 224.47 0.00 53.9 -- 55.6 0.0
06/16/2020 22:00 224.47 0.00 53.8 -- 59.2 0.0
06/16/2020 21:00 224.47 0.00 53.8 -- 67.7 0.0
06/16/2020 20:00 224.47 0.00 53.8 -- 72.9 0.0
06/16/2020 19:00 224.48 0.00 53.7 -- 76.9 0.0
06/16/2020 18:00 224.47 0.00 53.9 -- 76.3 0.0
06/16/2020 17:00 224.48 0.00 53.9 -- 76.9 0.0
06/16/2020 16:00 224.48 0.00 54.0 -- 77.4 0.0
06/16/2020 15:00 224.47 0.00 53.8 -- 78.5 0.0
06/16/2020 14:00 224.48 0.00 53.8 -- 77.0 0.0
06/16/2020 13:00 224.48 0.00 53.8 -- 75.0 0.0
06/16/2020 12:00 224.48 0.00 53.7 -- 72.5 0.0
06/16/2020 11:00 224.48 0.00 53.7 -- 70.5 0.0
06/16/2020 10:00 224.48 0.00 53.8 -- 69.9 0.0
06/16/2020 09:00 224.48 0.00 53.9 -- 62.4 0.0
06/16/2020 08:00 224.48 0.00 53.9 -- 52.5 0.0
06/16/2020 07:00 224.48 0.00 53.8 -- 47.5 0.0
06/16/2020 06:00 224.48 0.00 53.8 -- 46.9 0.0
06/16/2020 05:00 224.48 0.00 53.9 -- 47.4 0.0
06/16/2020 04:00 224.48 0.00 53.9 -- 48.1 0.0
06/16/2020 03:00 224.48 0.00 53.8 -- 48.7 0.0
06/16/2020 02:00 224.48 0.00 53.6 -- 50.0 0.0
06/16/2020 01:00 224.48 0.00 54.0 -- 51.0 0.0
06/16/2020 00:00 224.48 0.00 54.0 0.00 52.5 0.0
06/15/2020 23:00 224.48 0.00 53.9 -- 54.8 0.0
06/15/2020 22:00 224.48 0.00 53.9 -- 57.7 0.0
06/15/2020 21:00 224.48 0.00 53.8 -- 62.4 0.0
06/15/2020 20:00 224.48 0.00 53.9 -- 69.7 0.0
06/15/2020 19:00 224.48 0.00 54.1 -- 72.0 0.0
06/15/2020 18:00 224.48 0.00 54.0 -- 69.3 0.0
06/15/2020 17:00 224.48 0.00 53.7 -- 67.4 0.0
06/15/2020 16:00 224.48 0.00 54.1 -- 69.3 0.0
06/15/2020 15:00 224.48 0.00 53.9 -- 68.6 0.0
06/15/2020 14:00 224.48 0.00 53.8 -- 70.5 0.0
06/15/2020 13:00 224.48 0.00 53.7 -- 68.8 0.0
06/15/2020 12:00 224.48 0.00 54.3 -- 65.5 0.0
06/15/2020 11:00 224.48 0.00 53.9 -- 61.7 0.0
06/15/2020 10:00 224.49 0.00 53.8 -- 59.3 0.0
06/15/2020 09:00 224.48 0.00 53.8 -- 57.4 0.0
06/15/2020 08:00 224.49 0.00 54.2 -- 54.5 0.0
06/15/2020 07:00 224.48 0.00 53.9 -- 49.5 0.0
06/15/2020 06:00 224.49 0.00 53.9 -- 48.9 0.0
06/15/2020 05:00 224.48 0.00 54.0 -- 50.7 0.0
06/15/2020 04:00 224.48 0.00 53.9 -- 51.5 0.0
06/15/2020 03:00 224.48 0.00 54.0 -- 49.7 0.0
06/15/2020 02:00 224.49 0.00 54.1 -- 50.3 0.0
06/15/2020 01:00 224.49 0.00 53.9 -- 50.5 0.0
06/15/2020 00:00 224.48 0.00 53.8 0.00 52.5 0.0
06/14/2020 23:00 224.49 0.00 53.9 -- 56.2 0.0
06/14/2020 22:00 224.49 0.00 53.8 -- 56.0 0.0
06/14/2020 21:00 224.49 0.00 54.0 -- 61.5 0.0
06/14/2020 20:00 224.49 0.00 53.9 -- 67.6 0.0
06/14/2020 19:00 224.49 0.00 53.9 -- 68.3 0.0
06/14/2020 18:00 224.50 0.00 54.2 -- 66.7 0.0
06/14/2020 17:00 224.49 0.00 53.9 -- 68.0 0.0
06/14/2020 16:00 224.50 0.00 54.0 -- 68.1 0.0
06/14/2020 15:00 224.49 0.00 53.9 -- 68.4 0.0
06/14/2020 14:00 224.48 0.00 53.7 -- 65.5 0.0
06/14/2020 13:00 224.49 0.00 54.2 -- 64.9 0.0
06/14/2020 12:00 224.50 0.00 53.9 -- 63.7 0.0
06/14/2020 11:00 224.50 0.00 53.9 -- 60.9 0.0
06/14/2020 10:00 224.49 0.00 53.9 -- 59.4 0.0
06/14/2020 09:00 224.50 0.00 53.9 -- 56.9 0.0
06/14/2020 08:00 224.50 0.00 54.1 -- 54.9 0.0
06/14/2020 07:00 224.50 0.00 53.8 -- 52.3 0.0
06/14/2020 06:00 224.50 0.00 53.9 -- 52.9 0.0
06/14/2020 05:00 224.50 0.00 53.8 -- 53.3 0.0
06/14/2020 04:00 224.50 0.00 53.9 -- 52.1 0.0
06/14/2020 03:00 224.50 0.00 53.7 -- 49.4 0.0
06/14/2020 02:00 224.50 0.00 54.0 -- 51.8 0.0
06/14/2020 01:00 224.50 0.00 54.0 -- 54.0 0.0
06/14/2020 00:00 224.51 0.00 53.8 0.00 56.4 0.0
06/13/2020 23:00 224.50 0.00 53.8 -- 57.4 0.0
06/13/2020 22:00 224.50 0.00 53.9 -- 57.5 0.0
06/13/2020 21:00 224.50 0.00 53.6 -- 59.4 0.0
06/13/2020 20:00 224.50 0.00 54.0 -- 63.8 0.0
06/13/2020 19:00 224.51 0.00 53.9 -- 65.0 0.0
06/13/2020 18:00 224.52 0.00 54.0 -- 65.3 0.0
06/13/2020 17:00 224.51 0.00 53.7 -- 67.5 0.0
06/13/2020 16:00 224.50 0.00 53.7 -- 70.0 0.0
06/13/2020 15:00 224.50 0.00 53.7 -- 68.8 0.0
06/13/2020 14:00 224.51 0.00 53.8 -- 67.2 0.0
06/13/2020 13:00 224.51 0.00 53.6 -- 66.9 0.0
06/13/2020 12:00 224.51 0.00 53.6 -- 66.3 0.0
06/13/2020 11:00 224.50 0.00 53.6 -- 63.8 0.0
06/13/2020 10:00 224.51 0.00 53.7 -- 61.2 0.0
06/13/2020 09:00 224.51 0.00 53.5 -- 59.0 0.0
06/13/2020 08:00 224.51 0.00 53.7 -- 56.6 0.0
06/13/2020 07:00 224.51 0.00 54.0 -- 49.2 0.0
06/13/2020 06:00 224.51 0.00 53.8 -- 49.7 0.0
06/13/2020 05:00 224.52 0.00 53.5 -- 49.8 0.0
06/13/2020 04:00 224.51 0.00 53.8 -- 51.5 0.0
06/13/2020 03:00 224.51 0.00 53.6 -- 52.9 0.0
06/13/2020 02:00 224.52 0.00 53.7 -- 55.3 0.0
06/13/2020 01:00 224.51 0.00 53.8 -- 58.9 0.0
06/13/2020 00:00 224.51 0.00 53.8 0.00 65.2 0.0
06/12/2020 23:00 224.52 0.00 53.6 -- 65.5 0.3
06/12/2020 22:00 224.52 0.00 53.6 -- 69.3 0.0
06/12/2020 21:00 224.50 0.00 53.4 -- 73.0 0.0
06/12/2020 20:00 224.53 0.00 53.6 -- 77.9 0.3
06/12/2020 19:00 224.51 0.00 53.6 -- 79.9 0.0
06/12/2020 18:00 224.53 0.00 53.8 -- 81.1 0.5
06/12/2020 17:00 224.52 0.00 53.9 -- 80.5 0.0
06/12/2020 16:00 224.51 0.00 53.5 -- 81.4 0.5
06/12/2020 15:00 224.52 0.00 53.4 -- 81.4 0.0
06/12/2020 14:00 224.53 0.00 54.0 -- 79.6 0.5
06/12/2020 13:00 224.51 0.00 53.5 -- 78.3 0.0
06/12/2020 12:00 224.53 0.00 53.6 -- 75.9 0.5
06/12/2020 11:00 224.52 0.00 53.7 -- 73.9 0.5
06/12/2020 10:00 224.52 0.00 53.7 -- 71.4 0.0
06/12/2020 09:00 224.53 0.00 53.6 -- 65.0 0.3
06/12/2020 08:00 224.52 0.00 53.5 -- 59.7 0.5
06/12/2020 07:00 224.53 0.00 53.7 -- 56.5 0.3
06/12/2020 06:00 224.52 0.00 53.6 -- 57.3 0.5
06/12/2020 05:00 224.53 0.00 53.7 -- 59.7 1.0
06/12/2020 04:00 224.52 0.00 53.7 -- 62.8 0.3
06/12/2020 03:00 224.53 0.00 53.6 -- 66.5 0.0
06/12/2020 02:00 224.52 0.00 53.6 -- 67.1 0.0
06/12/2020 01:00 224.52 0.00 54.0 -- 68.0 0.3
06/12/2020 00:00 224.53 0.00 53.7 0.00 68.8 0.3
06/11/2020 23:00 224.52 0.00 53.4 -- 69.2 0.3
06/11/2020 22:00 224.52 0.00 53.8 -- 69.4 0.0
06/11/2020 21:00 224.52 0.00 53.7 -- 70.1 0.3
06/11/2020 20:00 224.53 0.00 53.3 -- 71.4 1.0
06/11/2020 19:00 224.53 0.00 53.4 -- 72.8 0.3
06/11/2020 18:00 224.53 0.00 53.8 -- 74.8 0.5
06/11/2020 17:00 224.53 0.00 53.8 -- 73.0 1.0
06/11/2020 16:00 224.52 0.00 53.7 -- 71.8 0.0
06/11/2020 15:00 224.52 0.06 53.7 -- 70.0 0.0
06/11/2020 14:00 224.52 0.33 53.7 -- 69.0 0.0
06/11/2020 13:00 224.48 0.01 53.6 -- 68.2 0.0
06/11/2020 12:00 224.49 0.00 53.5 -- 65.5 0.0
06/11/2020 11:00 224.48 0.00 53.7 -- 64.2 0.0
06/11/2020 10:00 224.49 0.00 53.5 -- 62.5 0.0
06/11/2020 09:00 224.50 0.00 53.7 -- 61.0 0.0
06/11/2020 08:00 224.47 0.00 53.6 -- 58.6 0.0
06/11/2020 07:00 224.49 0.00 53.6 -- 57.7 0.0
06/11/2020 06:00 224.49 0.00 53.8 -- 57.6 0.0
06/11/2020 05:00 224.47 0.00 53.6 -- 57.0 0.0
06/11/2020 04:00 224.49 0.00 53.6 -- 56.8 0.0
06/11/2020 03:00 224.49 0.00 53.7 -- 56.6 0.0
06/11/2020 02:00 224.49 0.00 53.6 -- 56.7 0.0
06/11/2020 01:00 224.48 0.00 53.9 -- 56.6 0.0
06/11/2020 00:00 224.48 0.00 53.9 0.40 57.0 0.0
06/10/2020 23:00 224.48 0.00 53.7 -- 57.4 0.0
06/10/2020 22:00 224.48 0.00 53.7 -- 57.6 0.0
06/10/2020 21:00 224.49 0.00 53.3 -- 58.1 0.0
06/10/2020 20:00 224.48 0.00 53.2 -- 59.5 0.0
06/10/2020 19:00 224.48 0.00 53.8 -- 61.3 0.0
06/10/2020 18:00 224.49 0.00 53.1 -- 63.8 0.0
06/10/2020 17:00 224.51 0.00 53.5 -- 67.6 0.0
06/10/2020 16:00 224.49 0.00 53.6 -- 70.1 0.0
06/10/2020 15:00 224.48 0.00 53.3 -- 70.8 0.0
06/10/2020 14:00 224.49 0.00 53.4 -- 70.4 0.0
06/10/2020 13:00 224.49 0.00 53.3 -- 69.8 0.0
06/10/2020 12:00 224.49 0.00 53.6 -- 67.8 0.0
06/10/2020 11:00 224.50 0.00 53.4 -- 68.2 0.0
06/10/2020 10:00 224.49 0.00 53.6 -- 66.6 0.0
06/10/2020 09:00 224.49 0.00 53.5 -- 64.2 0.0
06/10/2020 08:00 224.49 0.00 53.5 -- 60.6 0.0
06/10/2020 07:00 224.50 0.00 53.5 -- 55.7 0.0
06/10/2020 06:00 224.49 0.00 53.4 -- 55.4 0.0
06/10/2020 05:00 224.49 0.00 53.4 -- 57.2 0.0
06/10/2020 04:00 224.50 0.00 53.6 -- 58.0 0.0
06/10/2020 03:00 224.49 0.00 53.4 -- 58.1 0.0
06/10/2020 02:00 224.49 0.00 53.7 -- 59.6 0.0
06/10/2020 01:00 224.50 0.00 53.6 -- 60.6 0.0
06/10/2020 00:00 224.49 0.00 53.3 0.00 61.8 0.0
06/09/2020 23:00 224.50 0.00 53.7 -- 63.0 0.0
06/09/2020 22:00 224.49 0.00 53.6 -- 64.2 0.0
06/09/2020 21:00 224.50 0.00 53.5 -- 65.6 0.0
06/09/2020 20:00 224.49 0.00 53.5 -- 67.3 0.0
06/09/2020 19:00 224.49 0.00 53.4 -- 69.5 0.0
06/09/2020 18:00 224.49 0.00 53.5 -- 69.9 0.0
06/09/2020 17:00 224.49 0.00 53.6 -- 70.9 0.0
06/09/2020 16:00 224.49 0.00 53.6 -- 72.0 0.0
06/09/2020 15:00 224.50 0.00 53.4 -- 72.3 0.0
06/09/2020 14:00 224.49 0.00 53.4 -- 72.9 0.0
06/09/2020 13:00 224.49 0.00 53.4 -- 70.9 0.0
06/09/2020 12:00 224.50 0.00 53.6 -- 70.3 0.0
06/09/2020 11:00 224.49 0.00 53.6 -- 68.9 0.0
06/09/2020 10:00 224.50 0.00 53.7 -- 64.8 0.0
06/09/2020 09:00 224.49 0.00 53.4 -- 58.7 0.0
06/09/2020 08:00 224.50 0.00 53.4 -- 55.3 0.0
06/09/2020 07:00 224.50 0.00 53.4 -- 53.7 0.0
06/09/2020 06:00 224.49 0.00 53.3 -- 54.2 0.0
06/09/2020 05:00 224.50 0.00 53.4 -- 54.8 0.0
06/09/2020 04:00 224.49 0.00 53.7 -- 54.9 0.0
06/09/2020 03:00 224.50 0.00 53.4 -- 55.0 0.0
06/09/2020 02:00 224.50 0.00 53.4 -- 52.8 0.0
06/09/2020 01:00 224.50 0.00 53.5 -- 52.3 0.0
06/09/2020 00:00 224.49 0.00 53.3 0.00 54.4 0.0
06/08/2020 23:00 224.50 0.00 53.4 -- 57.9 0.0
06/08/2020 22:00 224.50 0.00 53.3 -- 61.6 0.0
06/08/2020 21:00 224.50 0.00 53.3 -- 68.6 0.0
06/08/2020 20:00 224.50 0.00 53.8 -- 74.5 0.0
06/08/2020 19:00 224.51 0.00 53.5 -- 76.1 0.0
06/08/2020 18:00 224.50 0.00 53.4 -- 75.7 0.0
06/08/2020 17:00 224.50 0.00 53.2 -- 75.4 0.0
06/08/2020 16:00 224.50 0.00 53.3 -- 74.3 0.0
06/08/2020 15:00 224.48 0.00 53.6 -- 73.4 0.0
06/08/2020 14:00 224.53 0.00 53.2 -- 71.4 0.3
06/08/2020 13:00 224.52 0.00 53.4 -- 71.1 0.0
06/08/2020 12:00 224.50 0.00 53.5 -- 69.9 0.0
06/08/2020 11:00 224.50 0.00 53.3 -- 67.1 0.0
06/08/2020 10:00 224.51 0.00 53.1 -- 64.3 0.0
06/08/2020 09:00 224.50 0.00 53.2 -- 60.6 0.0
06/08/2020 08:00 224.51 0.00 53.5 -- 56.2 0.0
06/08/2020 07:00 224.50 0.00 53.4 -- 52.5 0.0
06/08/2020 06:00 224.51 0.00 53.2 -- 48.1 0.0
06/08/2020 05:00 224.51 0.00 53.2 -- 48.0 0.0
06/08/2020 04:00 224.51 0.00 53.2 -- 48.1 0.0
06/08/2020 03:00 224.51 0.00 53.1 -- 47.5 0.0
06/08/2020 02:00 224.51 0.00 53.4 -- 49.0 0.0
06/08/2020 01:00 224.51 0.00 53.2 -- 51.7 0.0
06/08/2020 00:00 224.51 0.00 53.3 0.00 52.9 0.0
06/07/2020 23:00 224.51 0.00 53.3 -- 52.9 0.0
06/07/2020 22:00 224.51 0.00 53.3 -- 54.9 0.0
06/07/2020 21:00 224.51 0.00 53.3 -- 56.9 0.0
06/07/2020 20:00 224.51 0.00 53.3 -- 58.9 0.0
06/07/2020 19:00 224.52 0.00 53.2 -- 60.9 0.0
06/07/2020 18:00 224.52 0.00 53.2 -- 62.9 0.0
06/07/2020 17:00 224.52 0.00 53.2 -- 64.9 0.0
06/07/2020 16:00 224.52 0.00 53.2 -- 66.9 0.0
06/07/2020 15:00 224.52 0.00 53.3 -- 65.7 0.0
06/07/2020 14:00 224.52 0.00 53.3 -- 66.5 0.0
06/07/2020 13:00 224.51 0.00 53.2 -- 64.7 0.0
06/07/2020 12:00 224.52 0.00 53.3 -- 62.0 0.0
06/07/2020 11:00 224.51 0.00 53.3 -- 61.6 0.0
06/07/2020 10:00 224.51 0.00 53.1 -- 61.4 0.0
06/07/2020 09:00 224.53 0.00 53.7 -- 59.5 0.3
06/07/2020 08:00 224.51 0.00 53.5 -- 58.5 0.0
06/07/2020 07:00 224.52 0.00 53.4 -- 58.8 0.0
06/07/2020 06:00 224.51 0.00 53.1 -- 59.2 0.0
06/07/2020 05:00 224.51 0.00 53.2 -- 58.9 0.0
06/07/2020 04:00 224.52 0.00 54.0 -- 59.8 0.0
06/07/2020 03:00 224.51 0.00 53.3 -- 58.9 0.0
06/07/2020 02:00 224.52 0.00 53.1 -- 58.4 0.0
06/07/2020 01:00 224.52 0.00 53.3 -- 57.5 0.0
06/07/2020 00:00 224.52 0.04 53.1 0.00 59.9 0.0
06/06/2020 23:00 224.52 0.01 52.9 -- 62.6 0.3
06/06/2020 22:00 224.52 0.00 53.3 -- 65.6 0.0
06/06/2020 21:00 224.52 0.00 53.4 -- 67.7 0.0
06/06/2020 20:00 224.52 0.00 53.2 -- 71.5 0.0
06/06/2020 19:00 224.52 0.00 53.4 -- 74.7 0.0
06/06/2020 18:00 224.52 0.00 53.5 -- 71.8 0.0
06/06/2020 17:00 224.50 0.00 53.2 -- 71.4 0.0
06/06/2020 16:00 224.52 0.00 53.5 -- 82.4 0.0
06/06/2020 15:00 224.53 0.00 53.8 -- 79.9 0.5
06/06/2020 14:00 224.51 0.00 53.3 -- 74.8 0.0
06/06/2020 13:00 224.51 0.00 53.2 -- 82.2 0.0
06/06/2020 12:00 224.52 0.00 53.5 -- 81.5 0.0
06/06/2020 11:00 224.52 0.00 53.3 -- 78.3 0.0
06/06/2020 10:00 224.52 0.00 53.3 -- 74.3 0.0
06/06/2020 09:00 224.51 0.00 53.3 -- 71.0 0.0
06/06/2020 08:00 224.52 0.00 53.2 -- 68.3 0.0
06/06/2020 07:00 224.52 0.00 53.6 -- 64.5 0.0
06/06/2020 06:00 224.52 0.00 53.4 -- 64.9 0.0
06/06/2020 05:00 224.51 0.00 53.3 -- 65.1 0.0
06/06/2020 04:00 224.51 0.00 53.4 -- 65.4 0.0
06/06/2020 03:00 224.52 0.00 53.4 -- 67.1 0.0
06/06/2020 02:00 224.52 0.00 53.4 -- 69.3 0.0
06/06/2020 01:00 224.51 0.00 53.6 -- 70.5 0.0
06/06/2020 00:00 224.52 0.00 53.7 0.05 70.5 0.0
06/05/2020 23:00 224.52 0.00 53.4 -- 71.4 0.0
06/05/2020 22:00 224.51 0.00 53.4 -- 75.0 0.0
06/05/2020 21:00 224.52 0.00 53.5 -- 77.2 0.0
06/05/2020 20:00 224.52 0.00 53.4 -- 80.8 0.0
06/05/2020 19:00 224.51 0.00 53.9 -- 83.6 0.0
06/05/2020 18:00 224.52 0.00 53.4 -- 84.0 0.3
06/05/2020 17:00 224.52 0.00 53.4 -- 83.0 0.0
06/05/2020 16:00 224.51 0.00 53.2 -- 82.2 0.0
06/05/2020 15:00 224.52 0.00 53.6 -- 79.5 0.0
06/05/2020 14:00 224.52 0.00 53.4 -- 77.3 0.0
06/05/2020 13:00 224.52 0.00 53.5 -- 77.2 0.0
06/05/2020 12:00 224.52 0.00 53.4 -- 73.1 0.0
06/05/2020 11:00 224.51 0.00 53.4 -- 72.9 0.0
06/05/2020 10:00 224.52 0.00 53.4 -- 70.7 0.0
06/05/2020 09:00 224.52 0.00 53.5 -- 67.8 0.0
06/05/2020 08:00 224.51 0.00 53.4 -- 65.5 0.0
06/05/2020 07:00 224.53 0.00 53.6 -- 63.8 0.5
06/05/2020 06:00 224.53 0.00 53.6 -- 63.3 0.5
06/05/2020 05:00 224.51 0.00 53.7 -- 64.1 0.0
06/05/2020 04:00 224.51 0.00 53.6 -- 64.1 0.0
06/05/2020 03:00 224.51 0.00 53.2 -- 63.4 0.0
06/05/2020 02:00 224.52 0.00 53.7 -- 64.6 0.0
06/05/2020 01:00 224.51 0.00 53.4 -- 66.3 0.0
06/05/2020 00:00 224.51 0.00 53.4 0.00 67.1 0.0
06/04/2020 23:00 224.51 0.00 53.7 -- 66.4 0.0
06/04/2020 22:00 224.52 0.00 53.6 -- 68.8 0.0
06/04/2020 21:00 224.52 0.00 53.3 -- 74.8 0.0
06/04/2020 20:00 224.52 0.00 52.9 -- 84.0 0.0
06/04/2020 19:00 224.51 0.00 53.5 -- 85.6 0.0
06/04/2020 18:00 224.51 0.00 53.2 -- 86.8 0.3
06/04/2020 17:00 224.52 0.00 53.8 -- 85.7 0.0
06/04/2020 16:00 224.51 0.00 53.5 -- 84.9 0.0
06/04/2020 15:00 224.50 0.00 53.4 -- 83.0 0.0
06/04/2020 14:00 224.54 0.00 53.5 -- 81.1 0.5
06/04/2020 13:00 224.50 0.00 53.2 -- 79.2 0.3
06/04/2020 12:00 224.52 0.00 53.7 -- 76.8 0.0
06/04/2020 11:00 224.52 0.00 53.6 -- 72.9 0.0
06/04/2020 10:00 224.52 0.00 53.2 -- 69.8 0.0
06/04/2020 09:00 224.52 0.00 53.3 -- 65.0 0.0
06/04/2020 08:00 224.52 0.00 53.4 -- 58.8 0.0
06/04/2020 07:00 224.52 0.00 53.5 -- 55.0 0.0
06/04/2020 06:00 224.51 0.00 53.3 -- 53.6 0.0
06/04/2020 05:00 224.53 0.00 53.5 -- 53.0 0.3
06/04/2020 04:00 224.52 0.00 53.3 -- 53.8 0.0
06/04/2020 03:00 224.52 0.00 53.1 -- 55.2 0.0
06/04/2020 02:00 224.52 0.00 53.5 -- 55.7 0.0
06/04/2020 01:00 224.52 0.00 53.2 -- 57.1 0.0
06/04/2020 00:00 224.52 0.00 53.4 0.00 60.0 0.5
06/03/2020 23:00 224.53 0.01 53.2 -- 63.2 0.3
06/03/2020 22:00 224.49 0.00 53.6 -- 61.5 0.3
06/03/2020 21:00 224.53 0.00 53.3 -- 63.1 0.8
06/03/2020 20:00 224.51 0.01 53.6 -- 63.6 0.0
06/03/2020 19:00 224.52 0.00 53.3 -- 69.9 0.0
06/03/2020 18:00 224.51 0.00 53.1 -- 71.3 0.0
06/03/2020 17:00 224.52 0.00 53.4 -- 74.9 0.0
06/03/2020 16:00 224.52 0.00 53.3 -- 72.8 0.0
06/03/2020 15:00 224.52 0.00 53.5 -- 71.7 0.0
06/03/2020 14:00 224.51 0.00 53.6 -- 71.9 0.0
06/03/2020 13:00 224.51 0.00 53.5 -- 70.4 0.0
06/03/2020 12:00 224.52 0.00 53.3 -- 68.2 0.0
06/03/2020 11:00 224.51 0.00 53.3 -- 65.3 0.0
06/03/2020 10:00 224.51 0.00 53.3 -- 61.4 0.0
06/03/2020 09:00 224.52 0.00 53.3 -- 58.3 0.0
06/03/2020 08:00 224.51 0.00 53.4 -- 55.6 0.0
06/03/2020 07:00 224.52 0.00 53.5 -- 54.6 0.0
06/03/2020 06:00 224.52 0.00 53.4 -- 54.0 0.0
06/03/2020 05:00 224.51 0.00 53.4 -- 53.8 0.0
06/03/2020 04:00 224.52 0.00 53.4 -- 54.0 0.0
06/03/2020 03:00 224.52 0.00 53.5 -- 54.1 0.0
06/03/2020 02:00 224.52 0.00 53.4 -- 54.4 0.0
06/03/2020 01:00 224.52 0.00 53.5 -- 55.1 0.0
06/03/2020 00:00 224.52 0.00 53.4 0.02 54.8 0.0
06/02/2020 23:00 224.52 0.00 53.5 -- 54.0 0.0
06/02/2020 22:00 224.52 0.00 53.5 -- 56.1 0.0
06/02/2020 21:00 224.51 0.00 53.5 -- 58.4 0.0
06/02/2020 20:00 224.52 0.00 53.4 -- 60.3 0.0
06/02/2020 19:00 224.52 0.00 53.5 -- 60.9 0.0
06/02/2020 18:00 224.51 0.00 53.5 -- 63.7 0.0
06/02/2020 17:00 224.51 0.00 53.5 -- 66.3 0.0
06/02/2020 16:00 224.52 0.00 53.4 -- 67.1 0.0
06/02/2020 15:00 224.52 0.00 53.4 -- 64.3 0.0
06/02/2020 14:00 224.52 0.00 53.4 -- 63.2 0.0
06/02/2020 13:00 224.51 0.00 53.6 -- 65.8 0.0
06/02/2020 12:00 224.52 0.00 53.6 -- 60.3 0.0
06/02/2020 11:00 224.51 0.00 53.5 -- 59.2 0.0
06/02/2020 10:00 224.51 0.00 53.5 -- 57.5 0.0
06/02/2020 09:00 224.52 0.00 53.6 -- 52.2 0.0
06/02/2020 08:00 224.51 0.00 53.6 -- 44.0 0.0
06/02/2020 07:00 224.52 0.00 53.5 -- 39.6 0.0
06/02/2020 06:00 224.52 0.00 53.6 -- 39.6 0.0
06/02/2020 05:00 224.51 0.00 53.4 -- 40.2 0.0
06/02/2020 04:00 224.52 0.00 53.6 -- 41.6 0.0
06/02/2020 03:00 224.51 0.00 53.6 -- 43.1 0.0
06/02/2020 02:00 224.52 0.00 53.5 -- 48.4 0.0
06/02/2020 01:00 224.52 0.00 53.5 -- 50.3 0.0
06/02/2020 00:00 224.51 0.00 53.6 0.00 51.5 0.3
06/01/2020 23:00 224.53 0.00 53.4 -- 53.3 0.3
06/01/2020 22:00 224.51 0.00 53.6 -- 54.2 0.0
06/01/2020 21:00 224.51 0.00 53.6 -- 57.5 0.8
06/01/2020 20:00 224.53 0.00 53.4 -- 59.7 0.3
06/01/2020 19:00 224.51 0.00 53.6 -- 61.6 0.0
06/01/2020 18:00 224.52 0.00 54.0 -- 61.3 0.0
06/01/2020 17:00 224.53 0.00 53.5 -- 60.9 0.8
06/01/2020 16:00 224.54 0.00 53.1 -- 59.1 0.5
06/01/2020 15:00 224.51 0.00 53.7 -- 59.6 0.5
06/01/2020 14:00 224.54 0.00 53.7 -- 58.1 0.8
06/01/2020 13:00 224.51 0.00 53.4 -- 58.0 0.5
06/01/2020 12:00 224.53 0.00 53.3 -- 57.0 0.3
06/01/2020 11:00 224.53 0.00 53.3 -- 54.9 0.8
06/01/2020 10:00 224.53 0.00 53.3 -- 51.7 1.0
06/01/2020 09:00 224.53 0.00 53.4 -- 49.4 0.5
06/01/2020 08:00 224.53 0.00 53.1 -- 43.6 0.8
06/01/2020 07:00 224.53 0.00 53.5 -- 39.3 1.0
06/01/2020 06:00 224.53 0.00 53.1 -- 39.3 1.0
06/01/2020 05:00 224.53 0.00 53.6 -- 38.4 1.0
06/01/2020 04:00 224.53 0.00 53.4 -- 39.5 0.8
06/01/2020 03:00 224.53 0.00 53.3 -- 39.6 1.0
06/01/2020 02:00 224.54 0.00 53.4 -- 38.7 0.8
06/01/2020 01:00 224.53 0.00 53.4 -- 40.7 1.0
06/01/2020 00:00 224.53 0.00 53.4 0.00 44.5 1.0
05/31/2020 23:00 224.53 0.00 53.4 -- 47.6 1.0
05/31/2020 22:00 224.54 0.00 53.5 -- 49.5 0.8
05/31/2020 21:00 224.53 0.00 53.4 -- 52.8 1.3
05/31/2020 20:00 224.54 0.00 53.5 -- 56.4 1.0
05/31/2020 19:00 224.53 0.00 53.7 -- 59.0 0.8
05/31/2020 18:00 224.54 0.00 53.4 -- 59.1 0.3
05/31/2020 17:00 224.55 0.00 53.6 -- 60.2 1.3
05/31/2020 16:00 224.54 0.00 53.8 -- 60.0 0.5
05/31/2020 15:00 224.57 0.00 53.4 -- 60.7 2.3
05/31/2020 14:00 224.54 0.00 53.4 -- 61.2 1.5
05/31/2020 13:00 224.55 0.00 53.4 -- 59.5 1.0
05/31/2020 12:00 224.55 0.00 53.2 -- 58.8 1.3
05/31/2020 11:00 224.53 0.00 53.5 -- 57.6 1.3
05/31/2020 10:00 224.57 0.00 53.4 -- 54.8 2.8
05/31/2020 09:00 224.59 0.00 53.3 -- 54.4 1.3
05/31/2020 08:00 224.53 0.00 53.4 -- 53.5 1.8
05/31/2020 07:00 224.57 0.00 53.4 -- 55.3 1.3
05/31/2020 06:00 224.56 0.00 53.3 -- 57.8 2.3
05/31/2020 05:00 224.57 0.00 53.2 -- 59.5 2.0
05/31/2020 04:00 224.56 0.00 53.3 -- 60.7 2.0
05/31/2020 03:00 224.56 0.00 53.3 -- 62.5 2.0
05/31/2020 02:00 224.56 0.00 53.2 -- 64.4 2.0
05/31/2020 01:00 224.56 0.00 53.0 -- 65.9 2.0
05/31/2020 00:00 224.56 0.00 53.4 0.00 59.2 1.8
05/30/2020 23:00 224.57 0.00 53.4 -- 58.5 2.0
05/30/2020 22:00 224.57 0.00 53.3 -- 61.2 2.0
05/30/2020 21:00 224.56 0.00 52.9 -- 66.6 2.0
05/30/2020 20:00 224.57 0.00 53.3 -- 76.8 2.0
05/30/2020 19:00 224.57 0.00 53.2 -- 79.6 2.0
05/30/2020 18:00 224.58 0.00 53.0 -- 77.8 2.0
05/30/2020 17:00 224.57 0.00 53.4 -- 77.2 2.3
05/30/2020 16:00 224.57 0.00 53.2 -- 77.1 2.5
05/30/2020 15:00 224.57 0.00 53.2 -- 78.4 1.8
05/30/2020 14:00 224.57 0.00 53.3 -- 77.9 2.5
05/30/2020 13:00 224.58 0.00 53.1 -- 75.2 2.8
05/30/2020 12:00 224.57 0.00 53.0 -- 75.8 2.3
05/30/2020 11:00 224.56 0.00 53.0 -- 75.2 2.0
05/30/2020 10:00 224.58 0.00 53.3 -- 73.6 3.0
05/30/2020 09:00 224.58 0.00 53.4 -- 69.6 3.0
05/30/2020 08:00 224.58 0.00 53.4 -- 68.2 2.5
05/30/2020 07:00 224.58 0.00 53.1 -- 67.7 2.8
05/30/2020 06:00 224.58 0.00 53.2 -- 67.5 2.8
05/30/2020 05:00 224.57 0.02 52.9 -- 68.1 2.3
05/30/2020 04:00 224.58 0.00 53.1 -- 69.3 2.5
05/30/2020 03:00 224.57 0.00 53.4 -- 70.6 2.3
05/30/2020 02:00 224.57 0.00 52.9 -- 71.4 2.5
05/30/2020 01:00 224.57 0.00 53.3 -- 72.6 2.8
05/30/2020 00:00 224.59 0.00 53.4 0.02 73.6 2.3
05/29/2020 23:00 224.57 0.00 52.9 -- 74.7 3.0
05/29/2020 22:00 224.56 0.00 53.3 -- 75.7 2.5
05/29/2020 21:00 224.58 0.00 53.3 -- 76.6 2.5
05/29/2020 20:00 224.56 0.00 53.0 -- 79.0 2.5
05/29/2020 19:00 224.58 0.00 52.9 -- 81.5 2.8
05/29/2020 18:00 224.60 0.00 53.0 -- 83.4 3.0
05/29/2020 17:00 224.56 0.00 53.0 -- 83.9 2.5
05/29/2020 16:00 224.58 0.00 53.0 -- 83.6 2.8
05/29/2020 15:00 224.58 0.00 53.0 -- 84.3 3.0
05/29/2020 14:00 224.58 0.00 53.1 -- 84.5 2.5
05/29/2020 13:00 224.59 0.00 53.0 -- 82.8 2.5
05/29/2020 12:00 224.59 0.00 52.9 -- 80.5 2.8
05/29/2020 11:00 224.57 0.00 53.0 -- 76.7 2.8
05/29/2020 10:00 224.58 0.00 53.2 -- 76.3 2.8
05/29/2020 09:00 224.58 0.00 52.9 -- 72.5 3.0
05/29/2020 08:00 224.58 0.00 52.9 -- 71.1 3.0
05/29/2020 07:00 224.58 0.00 53.1 -- 70.0 3.0
05/29/2020 06:00 224.58 0.00 53.1 -- 70.0 3.0
05/29/2020 05:00 224.59 0.00 53.1 -- 70.3 3.0
05/29/2020 04:00 224.58 0.00 53.2 -- 70.7 3.0
05/29/2020 03:00 224.58 0.00 53.3 -- 70.6 2.8
05/29/2020 02:00 224.57 0.00 53.1 -- 70.9 2.8
05/29/2020 01:00 224.58 0.00 53.2 -- 70.8 3.0
05/29/2020 00:00 224.58 0.00 52.5 0.00 71.3 3.0
05/28/2020 23:00 224.59 0.00 52.7 -- 72.0 2.5
05/28/2020 22:00 224.58 0.00 53.4 -- 71.7 3.0
05/28/2020 21:00 224.58 0.00 52.7 -- 73.5 3.0
05/28/2020 20:00 224.58 0.00 53.1 -- 77.0 3.5
05/28/2020 19:00 224.59 0.00 53.1 -- 78.8 2.8
05/28/2020 18:00 224.57 0.00 52.8 -- 80.4 2.8
05/28/2020 17:00 224.58 0.00 52.9 -- 80.7 3.0
05/28/2020 16:00 224.57 0.00 53.1 -- 80.7 2.8
05/28/2020 15:00 224.59 0.00 52.9 -- 80.9 3.0
05/28/2020 14:00 224.59 0.00 52.7 -- 80.1 2.5
05/28/2020 13:00 224.58 0.00 53.1 -- 81.6 3.3
05/28/2020 12:00 224.59 0.00 52.9 -- 78.2 2.5
05/28/2020 11:00 224.58 0.00 52.4 -- 77.3 3.0
05/28/2020 10:00 224.60 0.00 53.5 -- 73.6 3.3
05/28/2020 09:00 224.59 0.00 52.9 -- 69.0 3.0
05/28/2020 08:00 224.59 0.00 52.9 -- 66.5 3.0
05/28/2020 07:00 224.59 0.00 52.9 -- 64.0 3.0
05/28/2020 06:00 224.59 0.00 53.0 -- 64.7 3.0
05/28/2020 05:00 224.59 0.00 52.9 -- 64.8 3.0
05/28/2020 04:00 224.58 0.00 53.0 -- 65.0 3.0
05/28/2020 03:00 224.59 0.00 53.1 -- 66.4 3.0
05/28/2020 02:00 224.59 0.00 52.9 -- 67.2 3.0
05/28/2020 01:00 224.59 0.00 53.1 -- 69.6 3.0
05/28/2020 00:00 224.59 0.00 52.9 0.00 71.6 3.0
05/27/2020 23:00 224.59 0.00 52.8 -- 73.1 3.0
05/27/2020 22:00 224.59 0.00 52.6 -- 73.8 3.0
05/27/2020 21:00 224.58 0.00 53.1 -- 78.6 3.3
05/27/2020 20:00 224.59 0.00 53.2 -- 84.6 3.3
05/27/2020 19:00 224.58 0.00 52.9 -- 87.5 3.0
05/27/2020 18:00 224.59 0.00 52.4 -- 88.8 3.5
05/27/2020 17:00 224.60 0.00 52.6 -- 90.5 3.8
05/27/2020 16:00 224.58 0.00 53.0 -- 89.6 3.0
05/27/2020 15:00 224.59 0.00 53.2 -- 88.7 3.3
05/27/2020 14:00 224.60 0.00 52.7 -- 86.7 3.3
05/27/2020 13:00 224.59 0.00 53.1 -- 85.4 3.3
05/27/2020 12:00 224.59 0.00 53.0 -- 82.7 3.0
05/27/2020 11:00 224.59 0.00 52.8 -- 78.6 3.0
05/27/2020 10:00 224.59 0.00 53.1 -- 73.8 3.0
05/27/2020 09:00 224.59 0.00 52.8 -- 68.2 3.0
05/27/2020 08:00 224.59 0.00 52.9 -- 58.4 3.0
05/27/2020 07:00 224.59 0.00 52.9 -- 55.7 3.0
05/27/2020 06:00 224.59 0.00 53.2 -- 55.7 3.0
05/27/2020 05:00 224.59 0.00 53.2 -- 56.3 3.0
05/27/2020 04:00 224.59 0.00 52.7 -- 57.0 3.3
05/27/2020 03:00 224.60 0.00 52.6 -- 57.7 3.0
05/27/2020 02:00 224.59 0.00 53.3 -- 58.7 3.5
05/27/2020 01:00 224.59 0.00 53.1 -- 59.4 3.3
05/27/2020 00:00 224.60 0.00 52.8 0.00 60.7 3.3
05/26/2020 23:00 224.60 0.00 52.6 -- 62.5 3.0
05/26/2020 22:00 224.59 0.00 53.2 -- 65.9 3.8
05/26/2020 21:00 224.59 0.00 52.7 -- 69.5 3.3
05/26/2020 20:00 224.60 0.00 52.5 -- 75.6 3.3
05/26/2020 19:00 224.60 0.00 52.7 -- 79.1 3.5
05/26/2020 18:00 224.59 0.00 52.6 -- 79.7 3.3
05/26/2020 17:00 224.60 0.00 52.8 -- 81.7 3.8
05/26/2020 16:00 224.59 0.00 52.7 -- 83.2 3.5
05/26/2020 15:00 224.59 0.00 52.7 -- 79.6 3.0
05/26/2020 14:00 224.59 0.00 52.7 -- 78.4 3.5
05/26/2020 13:00 224.60 0.00 52.6 -- 75.6 3.3
05/26/2020 12:00 224.60 0.00 52.7 -- 71.4 3.5
05/26/2020 11:00 224.60 0.00 52.6 -- 68.1 3.3
05/26/2020 10:00 224.59 0.00 52.7 -- 63.3 3.0
05/26/2020 09:00 224.59 0.00 52.8 -- 58.3 3.0
05/26/2020 08:00 224.60 0.00 52.6 -- 54.9 3.3
05/26/2020 07:00 224.59 0.00 52.6 -- 52.6 3.0
05/26/2020 06:00 224.59 0.00 52.8 -- 52.1 3.8
05/26/2020 05:00 224.60 0.00 52.7 -- 51.7 3.8
05/26/2020 04:00 224.60 0.00 52.8 -- 52.2 3.3
05/26/2020 03:00 224.59 0.00 52.5 -- 52.1 3.0
05/26/2020 02:00 224.59 0.00 52.7 -- 52.2 3.5
05/26/2020 01:00 224.59 0.00 52.7 -- 52.2 3.0
05/26/2020 00:00 224.59 0.00 53.0 0.00 52.6 3.5
05/25/2020 23:00 224.60 0.00 52.6 -- 53.6 3.8
05/25/2020 22:00 224.59 0.00 52.7 -- 54.1 3.3
05/25/2020 21:00 224.60 0.00 52.4 -- 56.6 4.0
05/25/2020 20:00 224.59 0.00 52.7 -- 60.1 3.0
05/25/2020 19:00 224.60 0.00 52.6 -- 60.4 3.8
05/25/2020 18:00 224.60 0.00 53.0 -- 61.8 3.3
05/25/2020 17:00 224.60 0.00 52.5 -- 63.0 3.5
05/25/2020 16:00 224.59 0.00 52.8 -- 59.9 3.8
05/25/2020 15:00 224.60 0.00 52.7 -- 59.6 3.5
05/25/2020 14:00 224.59 0.00 52.3 -- 59.2 3.5
05/25/2020 13:00 224.60 0.00 52.7 -- 59.5 3.3
05/25/2020 12:00 224.59 0.00 53.0 -- 55.6 3.5
05/25/2020 11:00 224.60 0.00 52.8 -- 53.2 3.8
05/25/2020 10:00 224.59 0.00 52.7 -- 50.1 3.0
05/25/2020 09:00 224.59 0.00 52.6 -- 48.1 3.8
05/25/2020 08:00 224.60 0.00 52.7 -- 47.4 3.5
05/25/2020 07:00 224.59 0.00 52.7 -- 46.2 3.3
05/25/2020 06:00 224.60 0.00 52.6 -- 45.4 4.0
05/25/2020 05:00 224.60 0.00 52.7 -- 44.8 3.5
05/25/2020 04:00 224.60 0.00 52.8 -- 45.2 4.0
05/25/2020 03:00 224.60 0.00 52.7 -- 41.6 4.0
05/25/2020 02:00 224.59 0.00 52.7 -- 41.4 3.8
05/25/2020 01:00 224.60 0.00 52.5 -- 43.5 4.0
05/25/2020 00:00 224.60 0.00 52.9 0.00 44.1 4.0
05/24/2020 23:00 224.60 0.00 52.4 -- 44.5 4.0
05/24/2020 22:00 224.60 0.00 52.9 -- 48.4 4.0
05/24/2020 21:00 224.60 0.00 52.6 -- 51.7 3.8
05/24/2020 20:00 224.60 0.00 52.6 -- 54.8 4.0
05/24/2020 19:00 224.60 0.00 52.6 -- 58.8 4.0
05/24/2020 18:00 224.60 0.00 52.9 -- 59.5 4.0
05/24/2020 17:00 224.61 0.00 52.8 -- 59.8 4.3
05/24/2020 16:00 224.61 0.00 52.5 -- 60.7 4.0
05/24/2020 15:00 224.61 0.00 52.6 -- 63.4 4.0
05/24/2020 14:00 224.61 0.00 52.8 -- 61.2 4.3
05/24/2020 13:00 224.60 0.00 52.8 -- 61.2 4.0
05/24/2020 12:00 224.61 0.00 52.9 -- 58.7 4.3
05/24/2020 11:00 224.61 0.00 52.8 -- 57.0 4.3
05/24/2020 10:00 224.60 0.00 52.7 -- 52.8 4.0
05/24/2020 09:00 224.61 0.00 52.8 -- 49.5 4.3
05/24/2020 08:00 224.61 0.00 52.7 -- 45.7 4.0
05/24/2020 07:00 224.60 0.00 52.8 -- 39.5 4.3
05/24/2020 06:00 224.61 0.00 52.9 -- 38.8 4.0
05/24/2020 05:00 224.61 0.00 52.8 -- 41.1 4.3
05/24/2020 04:00 224.61 0.00 52.9 -- 40.3 4.5
05/24/2020 03:00 224.61 0.00 52.6 -- 40.8 4.0
05/24/2020 02:00 224.61 0.00 52.6 -- 41.5 4.3
05/24/2020 01:00 224.62 0.00 52.7 -- 42.2 5.0
05/24/2020 00:00 224.61 0.00 52.5 0.00 43.7 4.0
05/23/2020 23:00 224.61 0.00 52.7 -- 45.8 5.0
05/23/2020 22:00 224.62 0.00 53.3 -- 47.9 5.0
05/23/2020 21:00 224.62 0.00 52.6 -- 50.5 4.8
05/23/2020 20:00 224.61 0.00 52.5 -- 54.7 4.8
05/23/2020 19:00 224.62 0.00 52.7 -- 55.9 5.0
05/23/2020 18:00 224.62 0.00 52.6 -- 58.5 5.0
05/23/2020 17:00 224.61 0.00 52.9 -- 60.5 5.0
05/23/2020 16:00 224.63 0.00 52.9 -- 59.3 4.5
05/23/2020 15:00 224.63 0.00 52.8 -- 63.2 6.3
05/23/2020 14:00 224.62 0.00 52.8 -- 63.9 5.8
05/23/2020 13:00 224.60 0.00 52.9 -- 66.8 5.5
05/23/2020 12:00 224.64 0.00 52.8 -- 66.7 5.8
05/23/2020 11:00 224.62 0.00 52.6 -- 66.5 5.0
05/23/2020 10:00 224.63 0.00 52.6 -- 64.5 6.0
05/23/2020 09:00 224.63 0.00 53.0 -- 63.8 5.5
05/23/2020 08:00 224.62 0.00 53.0 -- 63.4 5.3
05/23/2020 07:00 224.63 0.00 52.7 -- 60.6 6.0
05/23/2020 06:00 224.63 0.00 52.8 -- 58.5 5.8
05/23/2020 05:00 224.63 0.00 52.7 -- 60.0 5.8
05/23/2020 04:00 224.63 0.00 52.6 -- 62.3 6.0
05/23/2020 03:00 224.63 0.00 52.7 -- 60.7 5.5
05/23/2020 02:00 224.63 0.00 52.9 -- 59.5 6.0
05/23/2020 01:00 224.63 0.00 52.9 -- 60.4 5.5
05/23/2020 00:00 224.64 0.00 52.4 0.00 59.0 5.5
05/22/2020 23:00 224.63 0.00 52.7 -- 60.3 5.8
05/22/2020 22:00 224.63 0.00 52.5 -- 63.5 6.0
05/22/2020 21:00 224.63 0.00 52.5 -- 69.3 6.0
05/22/2020 20:00 224.63 0.00 52.9 -- 85.0 6.0
05/22/2020 19:00 224.63 0.00 52.7 -- 85.9 5.5
05/22/2020 18:00 224.64 0.00 52.7 -- 88.2 6.0
05/22/2020 17:00 224.64 0.00 52.3 -- 85.7 6.0
05/22/2020 16:00 224.63 0.00 53.0 -- 84.9 6.0
05/22/2020 15:00 224.63 0.00 52.4 -- 84.0 5.8
05/22/2020 14:00 224.63 0.00 52.3 -- 83.2 6.3
05/22/2020 13:00 224.62 0.00 52.7 -- 79.9 6.3
05/22/2020 12:00 224.66 0.00 52.6 -- 76.6 6.5
05/22/2020 11:00 224.64 0.00 52.6 -- 73.8 6.8
05/22/2020 10:00 224.64 0.00 52.6 -- 69.3 5.8
05/22/2020 09:00 224.64 0.00 52.5 -- 62.2 6.0
05/22/2020 08:00 224.64 0.00 52.5 -- 56.0 6.0
05/22/2020 07:00 224.64 0.00 52.6 -- 47.4 6.0
05/22/2020 06:00 224.65 0.00 52.7 -- 50.4 6.3
05/22/2020 05:00 224.64 0.00 52.6 -- 53.8 6.8
05/22/2020 04:00 224.65 0.00 52.6 -- 55.5 6.5
05/22/2020 03:00 224.64 0.00 52.5 -- 55.1 6.3
05/22/2020 02:00 224.64 0.00 52.7 -- 53.7 6.8
05/22/2020 01:00 224.64 0.00 52.4 -- 56.6 6.8
05/22/2020 00:00 224.65 0.00 52.9 0.00 59.9 6.5
05/21/2020 23:00 224.64 0.00 52.7 -- 59.7 6.8
05/21/2020 22:00 224.65 0.00 52.5 -- 61.6 7.0
05/21/2020 21:00 224.65 0.00 52.7 -- 70.6 6.3
05/21/2020 20:00 224.65 0.00 52.5 -- 78.0 7.0
05/21/2020 19:00 224.65 0.00 52.6 -- 79.5 7.0
05/21/2020 18:00 224.65 0.00 52.5 -- 80.0 7.0
05/21/2020 17:00 224.66 0.00 52.6 -- 79.5 7.8
05/21/2020 16:00 224.66 0.00 52.6 -- 78.8 7.3
05/21/2020 15:00 224.65 0.00 52.5 -- 78.2 7.5
05/21/2020 14:00 224.66 0.00 52.3 -- 76.5 6.8
05/21/2020 13:00 224.65 0.00 52.3 -- 73.3 7.3
05/21/2020 12:00 224.66 0.00 52.7 -- 70.9 7.5
05/21/2020 11:00 224.66 0.00 52.7 -- 66.2 7.0
05/21/2020 10:00 224.65 0.00 52.6 -- 60.0 7.0
05/21/2020 09:00 224.66 0.00 52.5 -- 53.7 7.8
05/21/2020 08:00 224.66 0.00 52.5 -- 42.5 7.3
05/21/2020 07:00 224.65 0.00 52.6 -- 38.0 7.3
05/21/2020 06:00 224.66 0.00 52.6 -- 37.3 7.8
05/21/2020 05:00 224.66 0.00 52.5 -- 38.2 7.8
05/21/2020 04:00 224.66 0.00 52.6 -- 38.7 7.8
05/21/2020 03:00 224.66 0.00 52.5 -- 39.6 8.0
05/21/2020 02:00 224.66 0.00 52.4 -- 41.0 7.5
05/21/2020 01:00 224.66 0.00 52.9 -- 42.9 8.0
05/21/2020 00:00 224.66 0.00 52.5 0.00 45.0 8.0
05/20/2020 23:00 224.66 0.00 52.7 -- 48.3 8.0
05/20/2020 22:00 224.66 0.00 53.0 -- 52.1 8.0
05/20/2020 21:00 224.66 0.00 52.6 -- 58.5 8.0
05/20/2020 20:00 224.67 0.00 52.1 -- 63.7 7.8
05/20/2020 19:00 224.66 0.00 52.3 -- 66.2 8.5
05/20/2020 18:00 224.67 0.00 52.5 -- 66.8 8.5
05/20/2020 17:00 224.67 0.00 52.4 -- 67.4 9.0
05/20/2020 16:00 224.67 0.00 52.8 -- 67.3 8.3
05/20/2020 15:00 224.66 0.00 52.5 -- 67.0 8.5
05/20/2020 14:00 224.66 0.00 52.5 -- 65.2 8.5
05/20/2020 13:00 224.68 0.00 52.5 -- 64.9 8.5
05/20/2020 12:00 224.67 0.00 52.6 -- 63.0 8.5
05/20/2020 11:00 224.68 0.00 52.5 -- 57.7 9.0
05/20/2020 10:00 224.68 0.00 52.5 -- 55.7 9.0
05/20/2020 09:00 224.67 0.00 52.5 -- 49.1 9.0
05/20/2020 08:00 224.68 0.00 52.5 -- 40.3 9.0
05/20/2020 07:00 224.68 0.00 52.7 -- 36.2 9.0
05/20/2020 06:00 224.67 0.00 52.7 -- 36.6 9.0
05/20/2020 05:00 224.68 0.00 52.5 -- 37.7 9.0
05/20/2020 04:00 224.68 0.00 52.4 -- 38.7 9.0
05/20/2020 03:00 224.68 0.00 52.5 -- 41.1 9.0
05/20/2020 02:00 224.68 0.00 52.3 -- 40.8 9.0
05/20/2020 01:00 224.68 0.00 52.5 -- 41.8 9.0
05/20/2020 00:00 224.68 0.00 52.5 0.00 43.4 9.0
05/19/2020 23:00 224.68 0.00 52.2 -- 45.9 9.0
05/19/2020 22:00 224.68 0.00 52.2 -- 48.1 9.8
05/19/2020 21:00 224.69 0.00 52.7 -- 52.0 9.5
05/19/2020 20:00 224.68 0.00 52.4 -- 58.2 9.5
05/19/2020 19:00 224.68 0.00 52.3 -- 59.4 9.3
05/19/2020 18:00 224.69 0.00 52.1 -- 59.2 9.8
05/19/2020 17:00 224.68 0.00 52.2 -- 59.3 9.5
05/19/2020 16:00 224.69 0.00 52.8 -- 61.0 10.3
05/19/2020 15:00 224.68 0.00 52.9 -- 60.1 10.3
05/19/2020 14:00 224.73 0.00 52.8 -- 59.4 10.0
05/19/2020 13:00 224.68 0.00 52.7 -- 60.4 10.3
05/19/2020 12:00 224.72 0.00 52.7 -- 58.5 11.8
05/19/2020 11:00 224.70 0.00 53.0 -- 56.6 10.8
05/19/2020 10:00 224.70 0.00 53.0 -- 53.4 10.8
05/19/2020 09:00 224.70 0.00 53.1 -- 51.0 11.8
05/19/2020 08:00 224.70 0.00 53.2 -- 48.6 10.5
05/19/2020 07:00 224.71 0.00 52.9 -- 43.4 11.0
05/19/2020 06:00 224.70 0.00 52.8 -- 40.9 11.0
05/19/2020 05:00 224.70 0.00 52.6 -- 40.4 11.0
05/19/2020 04:00 224.70 0.00 52.8 -- 42.1 11.0
05/19/2020 03:00 224.71 0.00 52.7 -- 44.6 11.0
05/19/2020 02:00 224.70 0.00 52.8 -- 46.5 11.0
05/19/2020 01:00 224.71 0.00 52.7 -- 43.6 11.0
05/19/2020 00:00 224.71 0.00 53.0 0.00 44.0 11.0
05/18/2020 23:00 224.71 0.00 52.8 -- 45.6 11.3
05/18/2020 22:00 224.71 0.00 52.7 -- 48.0 12.0
05/18/2020 21:00 224.71 0.00 52.7 -- 53.7 12.0
05/18/2020 20:00 224.70 0.00 52.8 -- 59.3 12.0
05/18/2020 19:00 224.70 0.00 52.8 -- 64.9 11.0
05/18/2020 18:00 224.71 0.00 52.8 -- 65.8 11.5
05/18/2020 17:00 224.71 0.00 52.8 -- 67.7 11.3
05/18/2020 16:00 224.71 0.00 52.6 -- 67.6 11.5
05/18/2020 15:00 224.70 0.00 52.8 -- 67.4 11.0
05/18/2020 14:00 224.71 0.00 52.5 -- 65.3 11.0
05/18/2020 13:00 224.71 0.00 52.7 -- 61.2 11.3
05/18/2020 12:00 224.71 0.00 52.7 -- 60.6 11.0
05/18/2020 11:00 224.71 0.00 52.6 -- 58.4 11.0
05/18/2020 10:00 224.71 0.00 52.5 -- 56.8 11.5
05/18/2020 09:00 224.71 0.00 52.8 -- 57.2 12.0
05/18/2020 08:00 224.71 0.00 52.8 -- 55.5 11.8
05/18/2020 07:00 224.71 0.00 52.9 -- 53.6 12.0
05/18/2020 06:00 224.71 0.00 52.7 -- 53.6 12.0
05/18/2020 05:00 224.71 0.00 52.6 -- 53.9 11.8
05/18/2020 04:00 224.71 0.00 52.6 -- 54.5 11.5
05/18/2020 03:00 224.71 0.00 52.6 -- 55.3 11.8
05/18/2020 02:00 224.71 0.00 52.7 -- 57.5 12.0
05/18/2020 01:00 224.71 0.00 52.7 -- 55.2 12.0
05/18/2020 00:00 224.72 0.00 52.6 0.00 55.6 12.0
05/17/2020 23:00 224.71 0.00 52.8 -- 56.8 12.0
05/17/2020 22:00 224.72 0.00 52.7 -- 57.8 12.0
05/17/2020 21:00 224.72 0.00 52.6 -- 62.2 12.0
05/17/2020 20:00 224.72 0.00 52.6 -- 66.7 12.0
05/17/2020 19:00 224.71 0.00 52.8 -- 68.9 12.0
05/17/2020 18:00 224.72 0.00 52.8 -- 67.8 12.5
05/17/2020 17:00 224.71 0.00 52.8 -- 67.8 12.0
05/17/2020 16:00 224.72 0.00 52.8 -- 67.9 12.5
05/17/2020 15:00 224.72 0.00 52.7 -- 66.1 12.0
05/17/2020 14:00 224.72 0.00 52.7 -- 64.9 12.3
05/17/2020 13:00 224.72 0.00 52.5 -- 67.6 12.5
05/17/2020 12:00 224.72 0.00 52.7 -- 64.4 11.8
05/17/2020 11:00 224.72 0.00 52.4 -- 62.2 12.0
05/17/2020 10:00 224.72 0.00 52.9 -- 57.6 12.0
05/17/2020 09:00 224.72 0.00 52.8 -- 53.9 12.0
05/17/2020 08:00 224.72 0.00 52.8 -- 48.8 12.0
05/17/2020 07:00 224.72 0.00 52.7 -- 47.5 12.3
05/17/2020 06:00 224.72 0.00 52.8 -- 47.6 13.0
05/17/2020 05:00 224.72 0.00 52.9 -- 47.1 12.0
05/17/2020 04:00 224.72 0.00 52.8 -- 46.8 12.0
05/17/2020 03:00 224.73 0.00 53.0 -- 47.3 13.0
05/17/2020 02:00 224.72 0.00 52.9 -- 47.2 12.0
05/17/2020 01:00 224.73 0.00 52.9 -- 48.0 13.0
05/17/2020 00:00 224.73 0.00 52.9 0.00 47.8 13.0
05/16/2020 23:00 224.73 0.00 52.9 -- 48.8 13.0
05/16/2020 22:00 224.73 0.00 52.8 -- 52.6 13.0
05/16/2020 21:00 224.73 0.00 52.2 -- 54.8 13.0
05/16/2020 20:00 224.73 0.00 53.3 -- 56.6 12.8
05/16/2020 19:00 224.73 0.00 52.5 -- 59.5 13.0
05/16/2020 18:00 224.74 0.00 52.7 -- 64.8 13.3
05/16/2020 17:00 224.73 0.00 52.5 -- 65.8 13.3
05/16/2020 16:00 224.74 0.00 52.5 -- 66.1 13.3
05/16/2020 15:00 224.74 0.00 52.5 -- 64.7 13.5
05/16/2020 14:00 224.72 0.00 52.7 -- 64.6 13.3
05/16/2020 13:00 224.73 0.00 52.7 -- 63.5 12.3
05/16/2020 12:00 224.75 0.00 52.7 -- 63.0 13.5
05/16/2020 11:00 224.74 0.00 52.7 -- 60.2 12.5
05/16/2020 10:00 224.73 0.00 52.5 -- 59.9 13.0
05/16/2020 09:00 224.73 0.00 52.6 -- 58.0 13.8
05/16/2020 08:00 224.73 0.00 51.7 -- 54.6 12.8
05/16/2020 07:00 224.73 0.00 52.5 -- 53.1 13.3
05/16/2020 06:00 224.75 0.01 51.8 -- 52.2 14.8
05/16/2020 05:00 224.73 0.00 52.7 -- 51.9 12.3
05/16/2020 04:00 224.72 0.03 52.9 -- 52.6 13.3
05/16/2020 03:00 224.74 0.02 52.9 -- 53.6 12.8
05/16/2020 02:00 224.72 0.05 52.6 -- 53.9 11.8
05/16/2020 01:00 224.71 0.03 51.4 -- 54.8 12.8
05/16/2020 00:00 224.73 0.00 52.4 0.14 54.9 12.8
05/15/2020 23:00 224.69 0.04 52.6 -- 54.2 10.8
05/15/2020 22:00 224.73 0.32 52.6 -- 54.3 10.5
05/15/2020 21:00 224.68 0.00 52.2 -- 56.5 9.0
05/15/2020 20:00 224.69 0.00 51.9 -- 59.7 9.3
05/15/2020 19:00 224.69 0.00 52.2 -- 64.5 9.8
05/15/2020 18:00 224.68 0.00 52.6 -- 68.7 9.3
05/15/2020 17:00 224.68 0.00 52.4 -- 70.7 9.3
05/15/2020 16:00 224.68 0.00 51.6 -- 71.5 9.0
05/15/2020 15:00 224.68 0.00 52.5 -- 72.0 9.0
05/15/2020 14:00 224.68 0.00 52.7 -- 68.6 9.0
05/15/2020 13:00 224.69 0.00 52.7 -- 68.2 9.3
05/15/2020 12:00 224.68 0.00 52.5 -- 66.0 9.0
05/15/2020 11:00 224.68 0.00 52.4 -- 62.8 9.3
05/15/2020 10:00 224.68 0.00 52.6 -- 58.8 9.0
05/15/2020 09:00 224.68 0.00 52.5 -- 58.8 9.0
05/15/2020 08:00 224.68 0.00 52.0 -- 54.9 9.0
05/15/2020 07:00 224.68 0.00 52.1 -- 51.4 9.0
05/15/2020 06:00 224.68 0.00 52.8 -- 51.5 9.0
05/15/2020 05:00 224.68 0.00 52.7 -- 50.3 9.0
05/15/2020 04:00 224.68 0.00 52.6 -- 50.3 9.0
05/15/2020 03:00 224.68 0.00 52.3 -- 50.7 9.3
05/15/2020 02:00 224.68 0.00 52.7 -- 51.3 9.3
05/15/2020 01:00 224.66 0.00 52.7 -- 51.4 8.8
05/15/2020 00:00 224.68 0.00 52.1 0.36 51.1 9.3
05/14/2020 23:00 224.68 0.00 51.6 -- 50.8 9.0
05/14/2020 22:00 224.68 0.00 52.7 -- 51.9 9.3
05/14/2020 21:00 224.69 0.00 52.9 -- 57.8 10.0
05/14/2020 20:00 224.68 0.00 52.7 -- 68.7 9.3
05/14/2020 19:00 224.68 0.00 52.5 -- 71.0 9.8
05/14/2020 18:00 224.69 0.00 52.6 -- 71.5 8.8
05/14/2020 17:00 224.67 0.00 51.7 -- 68.7 9.3
05/14/2020 16:00 224.69 0.00 52.7 -- 68.3 9.3
05/14/2020 15:00 224.67 0.00 51.6 -- 66.3 10.5
05/14/2020 14:00 224.69 0.00 52.9 -- 65.9 9.8
05/14/2020 13:00 224.70 0.00 52.8 -- 61.8 10.3
05/14/2020 12:00 224.68 0.00 51.5 -- 59.8 10.0
05/14/2020 11:00 224.68 0.00 52.9 -- 56.9 9.3
05/14/2020 10:00 224.70 0.00 52.8 -- 55.3 9.5
05/14/2020 09:00 224.69 0.00 52.9 -- 50.1 9.8
05/14/2020 08:00 224.69 0.00 52.7 -- 46.5 9.3
05/14/2020 07:00 224.69 0.00 52.9 -- 39.8 10.3
05/14/2020 06:00 224.69 0.00 52.8 -- 32.4 10.0
05/14/2020 05:00 224.69 0.00 52.7 -- 33.8 9.8
05/14/2020 04:00 224.70 0.00 52.9 -- 33.9 10.3
05/14/2020 03:00 224.70 0.00 52.9 -- 35.4 10.0
05/14/2020 02:00 224.68 0.00 51.8 -- 37.0 9.8
05/14/2020 01:00 224.69 0.00 51.4 -- 38.0 10.0
05/14/2020 00:00 224.69 0.00 52.1 0.00 39.7 9.5
05/13/2020 23:00 224.69 0.00 52.1 -- 42.3 10.0
05/13/2020 22:00 224.70 0.00 52.0 -- 46.1 10.8
05/13/2020 21:00 224.68 0.00 51.8 -- 52.5 9.5
05/13/2020 20:00 224.68 0.00 51.6 -- 55.4 10.8
05/13/2020 19:00 224.68 0.00 51.4 -- 56.8 9.0
05/13/2020 18:00 224.70 0.00 52.1 -- 57.4 10.0
05/13/2020 17:00 224.71 0.00 51.1 -- 56.5 9.8
05/13/2020 16:00 224.65 0.00 50.8 -- 55.9 9.8
05/13/2020 15:00 224.71 0.00 51.5 -- 54.8 12.3
05/13/2020 14:00 224.70 0.00 50.9 -- 54.1 10.5
05/13/2020 13:00 224.68 0.00 51.7 -- 52.5 10.3
05/13/2020 12:00 224.68 0.00 52.3 -- 50.2 11.5
05/13/2020 11:00 224.76 0.00 51.7 -- 47.8 13.3
05/13/2020 10:00 224.72 0.00 51.7 -- 45.3 11.0
05/13/2020 09:00 224.73 0.00 51.7 -- 41.7 11.5
05/13/2020 08:00 224.70 0.00 51.5 -- 37.1 10.8
05/13/2020 07:00 224.71 0.00 51.6 -- 34.1 11.0
05/13/2020 06:00 224.71 0.00 51.5 -- 34.8 11.3
05/13/2020 05:00 224.69 0.00 51.5 -- 36.5 11.0
05/13/2020 04:00 224.71 0.00 51.4 -- 37.4 11.0
05/13/2020 03:00 224.71 0.00 51.1 -- 38.4 11.0
05/13/2020 02:00 224.71 0.00 51.6 -- 40.1 11.0
05/13/2020 01:00 224.71 0.00 51.9 -- 39.9 11.3
05/13/2020 00:00 224.71 0.00 51.3 0.00 41.1 10.8
05/12/2020 23:00 224.72 0.00 51.7 -- 43.4 11.8
05/12/2020 22:00 224.71 0.00 51.8 -- 45.9 11.5
05/12/2020 21:00 224.70 0.00 51.6 -- 47.1 11.3
05/12/2020 20:00 224.72 0.00 51.0 -- 49.2 11.3
05/12/2020 19:00 224.72 0.00 51.4 -- 50.4 13.3
05/12/2020 18:00 224.78 0.00 51.2 -- 52.4 15.3
05/12/2020 17:00 224.75 0.00 51.9 -- 52.6 13.3
05/12/2020 16:00 224.70 0.00 50.8 -- 53.1 11.3
05/12/2020 15:00 224.68 0.00 51.5 -- 51.5 12.8
05/12/2020 14:00 224.70 0.00 51.1 -- 51.8 10.3
05/12/2020 13:00 224.74 0.00 51.9 -- 51.8 12.5
05/12/2020 12:00 224.70 0.00 51.9 -- 49.9 11.8
05/12/2020 11:00 224.69 0.00 51.5 -- 48.2 12.3
05/12/2020 10:00 224.68 0.00 51.2 -- 47.5 13.0
05/12/2020 09:00 224.71 0.00 51.7 -- 44.2 12.3
05/12/2020 08:00 224.73 0.00 51.7 -- 41.5 12.0
05/12/2020 07:00 224.72 0.00 51.8 -- 40.4 12.8
05/12/2020 06:00 224.74 0.00 51.2 -- 39.9 13.5
05/12/2020 05:00 224.73 0.00 50.5 -- 40.8 12.8
05/12/2020 04:00 224.71 0.00 50.6 -- 40.2 12.8
05/12/2020 03:00 224.73 0.00 51.2 -- 39.9 12.8
05/12/2020 02:00 224.71 0.00 50.8 -- 40.5 13.0
05/12/2020 01:00 224.72 0.00 51.3 -- 41.3 12.3
05/12/2020 00:00 224.73 0.00 51.0 0.00 44.7 12.8
05/11/2020 23:00 224.73 0.01 51.0 -- 46.0 12.8
05/11/2020 22:00 224.73 0.14 50.7 -- 47.2 12.8
05/11/2020 21:00 224.72 0.08 50.8 -- 49.3 12.0
05/11/2020 20:00 224.71 0.00 50.9 -- 50.5 11.5
05/11/2020 19:00 224.72 0.05 51.1 -- 50.5 11.3
05/11/2020 18:00 224.70 0.02 50.7 -- 50.3 11.3
05/11/2020 17:00 224.70 0.01 50.8 -- 53.4 11.3
05/11/2020 16:00 224.70 0.00 51.0 -- 54.1 10.8
05/11/2020 15:00 224.70 0.00 51.0 -- 56.6 11.3
05/11/2020 14:00 224.71 0.00 51.0 -- 60.7 11.3
05/11/2020 13:00 224.71 0.00 50.9 -- 60.9 11.3
05/11/2020 12:00 224.70 0.00 50.6 -- 59.6 10.8
05/11/2020 11:00 224.70 0.00 50.7 -- 56.6 11.0
05/11/2020 10:00 224.71 0.00 50.9 -- 53.5 11.0
05/11/2020 09:00 224.70 0.00 51.0 -- 47.5 11.0
05/11/2020 08:00 224.70 0.00 51.0 -- 38.2 11.0
05/11/2020 07:00 224.70 0.00 51.0 -- 35.2 11.0
05/11/2020 06:00 224.70 0.00 51.0 -- 35.5 11.0
05/11/2020 05:00 224.70 0.00 50.9 -- 36.6 11.0
05/11/2020 04:00 224.70 0.00 50.9 -- 38.8 11.3
05/11/2020 03:00 224.70 0.00 50.9 -- 39.6 11.0
05/11/2020 02:00 224.70 0.00 50.9 -- 41.0 11.0
05/11/2020 01:00 224.71 0.00 50.8 -- 44.4 11.5
05/11/2020 00:00 224.71 0.00 51.2 0.31 47.5 11.0
05/10/2020 23:00 224.70 0.00 50.7 -- 48.3 12.3
05/10/2020 22:00 224.73 0.00 50.5 -- 49.6 12.0
05/10/2020 21:00 224.68 0.00 50.9 -- 51.5 11.3
05/10/2020 20:00 224.70 0.00 51.1 -- 54.3 12.0
05/10/2020 19:00 224.70 0.00 50.7 -- 56.9 10.3
05/10/2020 18:00 224.68 0.00 51.1 -- 57.5 12.5
05/10/2020 17:00 224.73 0.00 50.7 -- 55.0 13.5
05/10/2020 16:00 224.68 0.00 51.0 -- 51.9 9.5
05/10/2020 15:00 224.70 0.00 50.6 -- 50.2 11.3
05/10/2020 14:00 224.74 0.00 50.1 -- 48.0 12.5
05/10/2020 13:00 224.72 0.00 51.5 -- 48.0 12.5
05/10/2020 12:00 224.74 0.00 51.1 -- 47.9 13.3
05/10/2020 11:00 224.71 0.00 51.4 -- 45.6 12.3
05/10/2020 10:00 224.70 0.00 51.3 -- 43.2 11.3
05/10/2020 09:00 224.70 0.00 51.0 -- 40.7 12.0
05/10/2020 08:00 224.71 0.00 51.3 -- 34.7 11.5
05/10/2020 07:00 224.73 0.00 51.2 -- 29.1 12.5
05/10/2020 06:00 224.71 0.00 50.2 -- 30.5 12.0
05/10/2020 05:00 224.72 0.00 50.5 -- 32.9 12.0
05/10/2020 04:00 224.72 0.00 50.5 -- 33.4 12.0
05/10/2020 03:00 224.72 0.00 50.4 -- 33.9 12.0
05/10/2020 02:00 224.72 0.00 50.4 -- 34.4 12.0
05/10/2020 01:00 224.73 0.00 50.4 -- 34.9 12.0
05/10/2020 00:00 224.73 0.00 50.3 0.00 35.5 12.0
05/09/2020 23:00 224.73 0.00 50.3 -- 36.0 13.0
05/09/2020 22:00 224.73 0.00 49.9 -- 36.4 13.0
05/09/2020 21:00 224.73 0.00 50.3 -- 37.7 13.0
05/09/2020 20:00 224.74 0.00 50.2 -- 38.7 13.5
05/09/2020 19:00 224.74 0.00 50.2 -- 40.9 12.3
05/09/2020 18:00 224.76 0.00 49.8 -- 35.2 12.8
05/09/2020 17:00 224.70 0.00 50.1 -- 38.7 11.0
05/09/2020 16:00 224.71 0.00 50.2 -- 39.8 13.8
05/09/2020 15:00 224.76 0.00 50.0 -- 41.5 14.0
05/09/2020 14:00 224.77 0.00 50.0 -- 40.8 15.5
05/09/2020 13:00 224.72 0.00 50.1 -- 39.3 13.0
05/09/2020 12:00 224.74 0.00 50.2 -- 37.0 13.8
05/09/2020 11:00 224.71 0.02 50.0 -- 34.4 12.5
05/09/2020 10:00 224.74 0.02 50.3 -- 33.8 13.0
05/09/2020 09:00 224.74 0.03 50.2 -- 33.8 14.3
05/09/2020 08:00 224.74 0.02 50.0 -- 34.7 13.0
05/09/2020 07:00 224.73 0.04 50.4 -- 35.5 13.0
05/09/2020 06:00 224.73 0.05 50.2 -- 37.3 13.0
05/09/2020 05:00 224.73 0.04 49.9 -- 39.6 13.0
05/09/2020 04:00 224.73 0.03 50.4 -- 40.7 12.8
05/09/2020 03:00 224.72 0.04 49.9 -- 41.1 12.0
05/09/2020 02:00 224.72 0.02 50.0 -- 41.7 12.3
05/09/2020 01:00 224.72 0.03 50.2 -- 42.3 12.0
05/09/2020 00:00 224.71 0.01 49.8 0.34 42.1 12.0
05/08/2020 23:00 224.72 0.00 49.8 -- 43.9 12.0
05/08/2020 22:00 224.71 0.00 50.2 -- 47.1 11.3
05/08/2020 21:00 224.70 0.00 49.7 -- 48.4 11.3
05/08/2020 20:00 224.71 0.00 50.3 -- 53.2 11.8
05/08/2020 19:00 224.73 0.00 50.1 -- 54.8 11.5
05/08/2020 18:00 224.71 0.00 50.3 -- 55.6 11.0
05/08/2020 17:00 224.72 0.00 49.8 -- 57.1 12.0
05/08/2020 16:00 224.70 0.00 49.7 -- 58.4 11.8
05/08/2020 15:00 224.71 0.00 50.3 -- 56.3 12.3
05/08/2020 14:00 224.80 0.00 50.4 -- 56.1 14.0
05/08/2020 13:00 224.69 0.00 49.9 -- 54.5 12.3
05/08/2020 12:00 224.72 0.00 49.8 -- 52.2 12.5
05/08/2020 11:00 224.72 0.00 50.3 -- 49.6 12.0
05/08/2020 10:00 224.73 0.00 49.9 -- 47.7 12.0
05/08/2020 09:00 224.71 0.00 50.0 -- 44.5 13.0
05/08/2020 08:00 224.71 0.00 50.2 -- 41.6 11.8
05/08/2020 07:00 224.72 0.00 50.0 -- 40.7 12.0
05/08/2020 06:00 224.73 0.00 49.7 -- 42.6 12.8
05/08/2020 05:00 224.74 0.00 50.0 -- 45.1 14.3
05/08/2020 04:00 224.72 0.00 50.0 -- 48.4 12.5
05/08/2020 03:00 224.72 0.00 50.0 -- 50.0 12.3
05/08/2020 02:00 224.75 0.00 50.1 -- 52.0 12.8
05/08/2020 01:00 224.73 0.00 49.9 -- 51.6 13.3
05/08/2020 00:00 224.73 0.00 50.2 0.01 42.4 12.5
05/07/2020 23:00 224.73 0.00 49.9 -- 41.9 13.3
05/07/2020 22:00 224.73 0.00 50.0 -- 45.2 13.0
05/07/2020 21:00 224.72 0.00 50.2 -- 50.4 12.8
05/07/2020 20:00 224.73 0.00 49.9 -- 57.0 13.8
05/07/2020 19:00 224.74 0.00 50.0 -- 61.1 12.8
05/07/2020 18:00 224.73 0.00 50.5 -- 62.6 12.8
05/07/2020 17:00 224.74 0.00 49.6 -- 60.8 13.0
05/07/2020 16:00 224.76 0.00 50.5 -- 62.1 14.5
05/07/2020 15:00 224.74 0.00 49.6 -- 61.2 13.0
05/07/2020 14:00 224.74 0.00 51.0 -- 61.1 13.8
05/07/2020 13:00 224.75 0.00 49.9 -- 57.7 15.3
05/07/2020 12:00 224.74 0.00 49.8 -- 57.1 13.8
05/07/2020 11:00 224.74 0.00 50.7 -- 54.9 14.0
05/07/2020 10:00 224.74 0.00 50.2 -- 51.9 14.0
05/07/2020 09:00 224.75 0.00 50.0 -- 45.4 14.5
05/07/2020 08:00 224.74 0.00 49.6 -- 39.9 14.0
05/07/2020 07:00 224.74 0.00 50.4 -- 39.4 14.8
05/07/2020 06:00 224.75 0.00 50.1 -- 41.9 14.8
05/07/2020 05:00 224.75 0.00 49.8 -- 41.9 14.3
05/07/2020 04:00 224.75 0.01 50.3 -- 42.2 14.8
05/07/2020 03:00 224.75 0.00 50.1 -- 42.9 15.0
05/07/2020 02:00 224.75 0.00 50.3 -- 43.1 14.5
05/07/2020 01:00 224.75 0.01 50.1 -- 43.6 15.0
05/07/2020 00:00 224.75 0.00 50.0 0.02 45.2 14.8
05/06/2020 23:00 224.74 0.00 49.9 -- 45.5 14.8
05/06/2020 22:00 224.75 0.00 50.1 -- 46.1 15.0
05/06/2020 21:00 224.75 0.00 50.4 -- 47.6 14.8
05/06/2020 20:00 224.75 0.00 50.4 -- 50.2 15.3
05/06/2020 19:00 224.75 0.00 50.3 -- 54.6 15.3
05/06/2020 18:00 224.76 0.00 50.1 -- 53.7 15.3
05/06/2020 17:00 224.75 0.00 49.8 -- 57.5 15.3
05/06/2020 16:00 224.75 0.00 49.9 -- 56.5 15.3
05/06/2020 15:00 224.77 0.00 50.2 -- 55.3 16.0
05/06/2020 14:00 224.75 0.00 50.3 -- 55.7 15.8
05/06/2020 13:00 224.76 0.00 50.1 -- 54.6 15.8
05/06/2020 12:00 224.76 0.00 50.3 -- 53.0 16.0
05/06/2020 11:00 224.76 0.00 50.0 -- 52.0 16.0
05/06/2020 10:00 224.76 0.00 50.4 -- 49.5 16.0
05/06/2020 09:00 224.76 0.00 50.0 -- 43.3 16.0
05/06/2020 08:00 224.76 0.00 50.5 -- 33.6 16.3
05/06/2020 07:00 224.77 0.00 50.5 -- 30.5 16.0
05/06/2020 06:00 224.77 0.00 50.4 -- 31.1 16.5
05/06/2020 05:00 224.77 0.00 49.6 -- 31.5 16.5
05/06/2020 04:00 224.77 0.00 51.1 -- 32.7 17.0
05/06/2020 03:00 224.77 0.00 51.3 -- 34.1 17.0
05/06/2020 02:00 224.77 0.00 50.6 -- 34.9 17.0
05/06/2020 01:00 224.78 0.00 49.1 -- 37.2 17.0
05/06/2020 00:00 224.77 0.00 50.3 0.00 38.9 17.0
05/05/2020 23:00 224.77 0.00 50.0 -- 42.2 17.0
05/05/2020 22:00 224.78 0.00 49.7 -- 44.9 17.8
05/05/2020 21:00 224.78 0.00 49.6 -- 47.2 17.3
05/05/2020 20:00 224.78 0.00 49.7 -- 50.2 18.8
05/05/2020 19:00 224.79 0.00 49.7 -- 51.2 18.0
05/05/2020 18:00 224.79 0.00 49.5 -- 54.3 19.3
05/05/2020 17:00 224.80 0.00 49.7 -- 54.0 18.3
05/05/2020 16:00 224.78 0.00 49.2 -- 53.7 18.3
05/05/2020 15:00 224.81 0.00 49.6 -- 52.4 19.5
05/05/2020 14:00 224.81 0.00 49.9 -- 51.0 20.3
05/05/2020 13:00 224.80 0.00 49.5 -- 49.5 19.0
05/05/2020 12:00 224.80 0.00 50.1 -- 47.9 19.8
05/05/2020 11:00 224.82 0.00 49.3 -- 47.0 19.5
05/05/2020 10:00 224.83 0.00 49.5 -- 44.3 20.3
05/05/2020 09:00 224.80 0.00 49.6 -- 44.2 19.8
05/05/2020 08:00 224.82 0.00 49.1 -- 43.8 21.5
05/05/2020 07:00 224.81 0.00 49.2 -- 44.3 20.3
05/05/2020 06:00 224.81 0.00 50.2 -- 44.4 21.3
05/05/2020 05:00 224.81 0.00 49.4 -- 45.2 21.3
05/05/2020 04:00 224.82 0.00 49.1 -- 45.3 21.3
05/05/2020 03:00 224.81 0.00 50.6 -- 45.6 21.3
05/05/2020 02:00 224.82 0.00 49.1 -- 46.3 21.5
05/05/2020 01:00 224.84 0.00 49.1 -- 46.9 22.3
05/05/2020 00:00 224.83 0.00 49.3 0.00 46.7 22.0
05/04/2020 23:00 224.83 0.00 49.2 -- 47.0 21.5
05/04/2020 22:00 224.85 0.00 49.3 -- 48.1 23.3
05/04/2020 21:00 224.84 0.00 49.1 -- 50.2 24.0
05/04/2020 20:00 224.82 0.00 49.3 -- 52.8 21.5
05/04/2020 19:00 224.82 0.00 49.1 -- 57.9 21.8
05/04/2020 18:00 224.81 0.00 49.2 -- 59.9 22.5
05/04/2020 17:00 224.87 0.00 49.3 -- 58.2 24.5
05/04/2020 16:00 224.83 0.00 49.3 -- 62.0 23.3
05/04/2020 15:00 224.87 0.00 49.4 -- 63.3 27.0
05/04/2020 14:00 224.84 0.00 49.5 -- 62.3 23.0
05/04/2020 13:00 224.86 0.00 49.3 -- 63.3 26.8
05/04/2020 12:00 224.88 0.00 49.1 -- 61.6 26.0
05/04/2020 11:00 224.84 0.00 49.3 -- 61.1 24.8
05/04/2020 10:00 224.86 0.00 49.3 -- 60.0 26.3
05/04/2020 09:00 224.86 0.00 49.3 -- 58.2 25.8
05/04/2020 08:00 224.86 0.00 49.3 -- 51.0 26.3
05/04/2020 07:00 224.87 0.00 49.3 -- 51.3 26.8
05/04/2020 06:00 224.87 0.00 49.3 -- 59.3 26.8
05/04/2020 05:00 224.87 0.00 49.4 -- 60.0 26.5
05/04/2020 04:00 224.88 0.00 49.4 -- 60.7 27.8
05/04/2020 03:00 224.88 0.00 49.2 -- 63.0 27.5
05/04/2020 02:00 224.88 0.00 49.0 -- 54.6 27.5
05/04/2020 01:00 224.88 0.00 49.0 -- 51.4 27.8
05/04/2020 00:00 224.88 0.00 49.1 0.00 51.1 28.8
05/03/2020 23:00 224.89 0.00 49.0 -- 53.6 28.3
05/03/2020 22:00 224.89 0.00 49.1 -- 56.7 29.0
05/03/2020 21:00 224.89 0.00 49.1 -- 62.5 28.8
05/03/2020 20:00 224.88 0.00 49.1 -- 74.3 28.0
05/03/2020 19:00 224.88 0.00 49.0 -- 77.9 29.8
05/03/2020 18:00 224.88 0.00 49.0 -- 77.2 29.0
05/03/2020 17:00 -- -- -- -- 77.7 29.0
05/03/2020 16:00 -- -- -- -- 75.2 29.8
05/03/2020 15:00 -- -- -- -- 73.0 29.3
05/03/2020 14:00 -- -- -- -- 71.7 30.3
05/03/2020 13:00 -- -- -- -- 70.1 30.3
05/03/2020 12:00 -- -- -- -- 65.8 30.0
05/03/2020 11:00 -- -- -- -- 62.6 29.5
05/03/2020 10:00 -- -- -- -- 55.3 30.3
05/03/2020 09:00 -- -- -- -- 50.2 30.0
05/03/2020 08:00 -- -- -- -- 48.9 29.8
05/03/2020 07:00 -- -- -- -- 47.4 31.0
05/03/2020 06:00 -- -- -- -- 48.0 29.8
05/03/2020 05:00 -- -- -- -- 48.2 31.0
05/03/2020 04:00 -- -- -- -- 49.0 31.3
05/03/2020 03:00 -- -- -- -- 48.8 31.0
05/03/2020 02:00 -- -- -- -- 48.5 31.5
05/03/2020 01:00 -- -- -- -- 49.2 31.5
05/03/2020 00:00 -- -- -- 0.00 50.8 32.5